GEFSGL_prec_meanprecacc_090.txt.gz
Total_Precipitation_Accumulation
0.93 1.03 1.06 0.85 0.61 0.49 0.47 0.45 0.44 0.47 0.52 0.60 0.55 0.52 0.58 0.62 0.59 0.66 0.76 0.87 0.95 1.00 1.02 1.05 1.12 1.19 1.26 1.30 1.39 1.43 1.42 1.32 1.03 0.91 0.80 0.67 0.70 0.70 0.73 0.66 0.71 0.74 0.67
0.80 0.79 0.65 0.47 0.37 0.34 0.30 0.25 0.22 0.22 0.22 0.29 0.32 0.32 0.40 0.51 0.52 0.57 0.61 0.63 0.69 0.73 0.77 0.82 0.88 0.95 1.04 1.11 1.17 1.22 1.30 1.34 1.22 1.05 0.90 0.76 0.69 0.70 0.84 0.88 0.86 0.79 0.77
0.44 0.42 0.39 0.32 0.30 0.26 0.21 0.19 0.17 0.16 0.16 0.20 0.23 0.26 0.29 0.39 0.50 0.56 0.58 0.54 0.53 0.51 0.52 0.56 0.65 0.72 0.83 0.90 0.95 1.00 1.10 1.18 1.25 1.11 1.03 0.94 0.78 0.74 0.85 0.86 0.92 1.08 1.01
0.25 0.23 0.22 0.23 0.23 0.23 0.23 0.23 0.18 0.14 0.16 0.15 0.14 0.16 0.24 0.34 0.43 0.51 0.55 0.52 0.49 0.48 0.49 0.49 0.53 0.54 0.59 0.70 0.82 0.97 1.08 1.20 1.26 1.17 1.12 1.08 0.97 0.88 0.94 1.00 1.08 1.16 1.23
0.15 0.15 0.18 0.18 0.18 0.18 0.20 0.20 0.17 0.14 0.12 0.08 0.06 0.08 0.16 0.21 0.26 0.40 0.45 0.45 0.48 0.45 0.46 0.51 0.52 0.48 0.47 0.51 0.52 0.67 0.84 1.04 1.18 1.23 1.22 1.24 1.17 1.07 0.99 1.04 1.16 1.29 1.40
0.03 0.05 0.08 0.11 0.13 0.15 0.15 0.15 0.13 0.11 0.09 0.07 0.05 0.05 0.07 0.08 0.14 0.21 0.30 0.40 0.47 0.50 0.51 0.54 0.52 0.46 0.50 0.48 0.46 0.49 0.56 0.68 0.85 0.97 1.05 1.10 1.14 1.21 1.27 1.29 1.31 1.37 1.45
0.01 0.01 0.02 0.03 0.04 0.05 0.05 0.05 0.05 0.04 0.04 0.03 0.04 0.04 0.04 0.04 0.04 0.07 0.17 0.33 0.47 0.48 0.47 0.61 0.67 0.60 0.59 0.62 0.63 0.56 0.49 0.46 0.57 0.75 0.87 0.91 0.97 1.08 1.27 1.35 1.37 1.37 1.28
0.00 0.00 0.00 0.01 0.01 0.02 0.02 0.02 0.02 0.02 0.02 0.03 0.04 0.07 0.04 0.02 0.02 0.03 0.08 0.23 0.38 0.42 0.42 0.54 0.79 0.83 0.73 0.69 0.73 0.82 0.73 0.56 0.53 0.57 0.70 0.78 0.81 0.97 1.28 1.49 1.47 1.28 1.20
0.00 0.00 0.00 0.00 0.01 0.01 0.01 0.01 0.00 0.01 0.02 0.02 0.03 0.05 0.04 0.03 0.02 0.03 0.06 0.17 0.28 0.32 0.36 0.48 0.64 0.79 0.73 0.69 0.69 0.76 0.80 0.69 0.61 0.60 0.55 0.60 0.70 0.87 1.13 1.37 1.45 1.39 1.25
0.00 0.00 0.00 0.00 0.01 0.01 0.01 0.01 0.01 0.01 0.02 0.02 0.01 0.01 0.01 0.01 0.02 0.03 0.05 0.10 0.15 0.15 0.22 0.38 0.54 0.54 0.50 0.55 0.67 0.78 0.87 0.71 0.61 0.68 0.67 0.68 0.69 0.86 1.17 1.36 1.43 1.37 1.25
0.00 0.00 0.01 0.01 0.01 0.02 0.02 0.02 0.01 0.01 0.02 0.02 0.02 0.02 0.02 0.01 0.02 0.03 0.05 0.07 0.09 0.09 0.15 0.29 0.38 0.35 0.34 0.41 0.53 0.67 0.80 0.66 0.68 0.82 0.85 0.83 0.88 0.93 1.05 1.17 1.32 1.40 1.28
0.00 0.01 0.01 0.01 0.01 0.01 0.03 0.02 0.01 0.01 0.02 0.03 0.05 0.05 0.05 0.04 0.02 0.03 0.05 0.07 0.08 0.09 0.16 0.22 0.26 0.22 0.22 0.26 0.33 0.45 0.57 0.64 0.73 0.85 0.93 0.89 0.84 0.90 0.95 0.98 1.07 1.16 1.13
0.00 0.01 0.00 0.01 0.01 0.01 0.01 0.01 0.01 0.01 0.01 0.02 0.04 0.06 0.06 0.07 0.04 0.02 0.03 0.05 0.06 0.10 0.13 0.17 0.18 0.19 0.22 0.24 0.27 0.35 0.49 0.68 0.85 0.85 0.79 0.76 0.79 0.84 0.83 0.93 1.01 1.06 1.06
0.00 0.00 0.00 0.00 0.01 0.02 0.01 0.01 0.01 0.01 0.01 0.01 0.02 0.04 0.05 0.07 0.04 0.03 0.05 0.07 0.08 0.11 0.13 0.13 0.14 0.19 0.22 0.23 0.29 0.40 0.55 0.75 0.83 0.75 0.70 0.61 0.63 0.78 0.82 0.81 0.85 0.88 0.93
0.00 0.00 0.00 0.00 0.01 0.02 0.01 0.00 0.00 0.00 0.00 0.01 0.02 0.03 0.02 0.03 0.02 0.01 0.03 0.05 0.06 0.06 0.10 0.17 0.22 0.28 0.34 0.40 0.50 0.57 0.58 0.62 0.68 0.62 0.65 0.60 0.57 0.64 0.68 0.67 0.68 0.66 0.67
0.00 0.00 0.00 0.00 0.01 0.01 0.02 0.02 0.00 0.00 0.00 0.00 0.00 0.01 0.02 0.00 0.00 0.01 0.01 0.02 0.02 0.05 0.13 0.22 0.30 0.38 0.43 0.51 0.55 0.56 0.56 0.57 0.60 0.57 0.56 0.56 0.51 0.51 0.52 0.54 0.56 0.58 0.62
0.00 0.00 0.00 0.00 0.01 0.01 0.01 0.03 0.03 0.02 0.01 0.00 0.00 0.00 0.00 0.00 0.00 0.01 0.01 0.02 0.02 0.04 0.11 0.23 0.43 0.47 0.43 0.48 0.51 0.50 0.42 0.36 0.36 0.38 0.37 0.36 0.35 0.36 0.39 0.41 0.42 0.47 0.50
0.00 0.00 0.00 0.00 0.00 0.00 0.01 0.01 0.02 0.03 0.04 0.04 0.02 0.00 0.00 0.00 0.00 0.01 0.01 0.03 0.03 0.04 0.07 0.14 0.27 0.31 0.33 0.37 0.35 0.32 0.25 0.19 0.19 0.19 0.19 0.20 0.21 0.24 0.26 0.30 0.30 0.29 0.35
0.00 0.00 0.00 0.00 0.00 0.00 0.00 0.01 0.01 0.01 0.01 0.03 0.03 0.01 0.00 0.00 0.01 0.01 0.01 0.02 0.03 0.05 0.07 0.12 0.15 0.17 0.18 0.16 0.15 0.14 0.12 0.12 0.11 0.10 0.12 0.14 0.15 0.16 0.16 0.17 0.21 0.24 0.24
0.01 0.01 0.01 0.01 0.01 0.00 0.00 0.01 0.01 0.01 0.01 0.01 0.01 0.01 0.01 0.02 0.03 0.02 0.02 0.02 0.03 0.04 0.05 0.06 0.07 0.07 0.06 0.05 0.05 0.06 0.07 0.09 0.08 0.07 0.07 0.09 0.11 0.12 0.11 0.11 0.12 0.13 0.16
0.01 0.01 0.02 0.02 0.01 0.01 0.01 0.01 0.01 0.01 0.01 0.01 0.01 0.00 0.00 0.01 0.02 0.03 0.03 0.02 0.03 0.03 0.03 0.03 0.03 0.03 0.03 0.03 0.04 0.04 0.05 0.08 0.09 0.08 0.08 0.08 0.10 0.10 0.10 0.10 0.09 0.09 0.11
0.01 0.01 0.01 0.02 0.02 0.01 0.01 0.01 0.01 0.01 0.01 0.01 0.01 0.00 0.00 0.01 0.01 0.02 0.02 0.02 0.02 0.02 0.02 0.03 0.03 0.03 0.04 0.04 0.04 0.05 0.06 0.08 0.11 0.11 0.10 0.09 0.09 0.09 0.08 0.08 0.09 0.09 0.10
0.01 0.01 0.02 0.02 0.03 0.03 0.02 0.02 0.02 0.03 0.03 0.02 0.02 0.01 0.01 0.01 0.01 0.02 0.02 0.02 0.02 0.02 0.03 0.03 0.04 0.05 0.05 0.06 0.06 0.07 0.08 0.09 0.11 0.14 0.15 0.13 0.10 0.09 0.08 0.08 0.07 0.08 0.08
0.01 0.01 0.02 0.02 0.03 0.04 0.03 0.02 0.02 0.03 0.03 0.04 0.03 0.02 0.02 0.01 0.01 0.02 0.02 0.02 0.02 0.03 0.03 0.04 0.05 0.05 0.06 0.07 0.08 0.08 0.10 0.11 0.12 0.15 0.17 0.18 0.15 0.12 0.10 0.09 0.09 0.09 0.09
0.01 0.02 0.02 0.03 0.04 0.04 0.04 0.04 0.03 0.03 0.03 0.03 0.03 0.03 0.02 0.01 0.01 0.01 0.02 0.02 0.02 0.03 0.03 0.04 0.04 0.05 0.05 0.06 0.08 0.09 0.12 0.12 0.11 0.12 0.15 0.18 0.18 0.17 0.15 0.13 0.12 0.11 0.11
0.01 0.02 0.03 0.03 0.04 0.04 0.04 0.04 0.04 0.04 0.04 0.03 0.03 0.03 0.03 0.02 0.02 0.02 0.02 0.02 0.02 0.03 0.03 0.03 0.04 0.04 0.05 0.06 0.08 0.11 0.12 0.10 0.09 0.10 0.13 0.16 0.19 0.20 0.20 0.19 0.17 0.16 0.15

GEFSGL_prec_meanprecacc_096.txt.gz
Total_Precipitation_Accumulation
0.93 1.03 1.06 0.85 0.61 0.49 0.47 0.45 0.44 0.47 0.52 0.60 0.55 0.52 0.58 0.62 0.59 0.67 0.77 0.88 0.96 1.01 1.02 1.05 1.12 1.19 1.26 1.30 1.40 1.45 1.45 1.35 1.06 0.95 0.84 0.73 0.74 0.73 0.76 0.71 0.76 0.79 0.73
0.80 0.79 0.65 0.47 0.37 0.34 0.30 0.25 0.22 0.22 0.22 0.29 0.32 0.32 0.40 0.51 0.52 0.58 0.62 0.64 0.70 0.74 0.77 0.83 0.89 0.96 1.04 1.12 1.17 1.23 1.32 1.36 1.24 1.08 0.94 0.82 0.73 0.72 0.86 0.91 0.90 0.84 0.83
0.44 0.42 0.39 0.32 0.30 0.26 0.21 0.19 0.17 0.16 0.16 0.20 0.23 0.26 0.29 0.39 0.50 0.56 0.58 0.54 0.53 0.51 0.52 0.56 0.65 0.72 0.83 0.91 0.96 1.01 1.11 1.19 1.26 1.14 1.07 0.98 0.83 0.76 0.86 0.88 0.95 1.11 1.04
0.25 0.23 0.22 0.23 0.23 0.23 0.23 0.23 0.18 0.14 0.16 0.15 0.14 0.16 0.24 0.34 0.43 0.51 0.55 0.52 0.49 0.48 0.49 0.49 0.53 0.54 0.59 0.70 0.83 0.98 1.08 1.21 1.27 1.19 1.14 1.12 1.01 0.92 0.96 1.02 1.10 1.18 1.25
0.15 0.15 0.18 0.18 0.18 0.18 0.20 0.20 0.17 0.14 0.12 0.08 0.06 0.08 0.16 0.21 0.26 0.40 0.45 0.45 0.48 0.45 0.46 0.51 0.52 0.48 0.47 0.51 0.52 0.68 0.85 1.05 1.19 1.24 1.24 1.25 1.18 1.08 1.00 1.05 1.17 1.30 1.41
0.03 0.05 0.08 0.11 0.13 0.15 0.15 0.15 0.13 0.11 0.09 0.07 0.05 0.05 0.07 0.08 0.14 0.21 0.30 0.40 0.47 0.50 0.51 0.54 0.52 0.46 0.50 0.48 0.47 0.49 0.57 0.68 0.85 0.97 1.06 1.11 1.15 1.21 1.28 1.29 1.32 1.38 1.46
0.01 0.01 0.02 0.03 0.04 0.05 0.05 0.06 0.05 0.04 0.04 0.03 0.04 0.04 0.04 0.04 0.04 0.07 0.17 0.33 0.47 0.48 0.47 0.61 0.67 0.60 0.59 0.62 0.63 0.56 0.49 0.46 0.58 0.75 0.87 0.91 0.98 1.08 1.28 1.35 1.38 1.38 1.29
0.00 0.00 0.01 0.01 0.02 0.02 0.02 0.02 0.02 0.02 0.02 0.03 0.04 0.07 0.04 0.02 0.02 0.03 0.08 0.23 0.38 0.42 0.42 0.54 0.79 0.83 0.73 0.69 0.73 0.82 0.73 0.57 0.54 0.57 0.70 0.78 0.82 0.97 1.29 1.49 1.47 1.28 1.20
0.00 0.00 0.00 0.01 0.01 0.01 0.01 0.01 0.00 0.01 0.02 0.02 0.03 0.05 0.04 0.03 0.02 0.03 0.06 0.17 0.28 0.32 0.36 0.48 0.64 0.79 0.73 0.69 0.69 0.76 0.80 0.70 0.62 0.61 0.55 0.60 0.70 0.88 1.14 1.37 1.45 1.39 1.25
0.00 0.00 0.00 0.00 0.01 0.01 0.01 0.01 0.01 0.01 0.02 0.02 0.01 0.01 0.01 0.01 0.02 0.03 0.05 0.10 0.15 0.15 0.22 0.38 0.54 0.54 0.50 0.55 0.67 0.78 0.87 0.72 0.61 0.68 0.67 0.68 0.69 0.86 1.18 1.37 1.43 1.38 1.26
0.00 0.00 0.01 0.01 0.01 0.02 0.02 0.02 0.01 0.01 0.02 0.02 0.02 0.02 0.02 0.01 0.02 0.03 0.05 0.07 0.09 0.09 0.15 0.29 0.38 0.35 0.34 0.41 0.53 0.67 0.80 0.66 0.68 0.82 0.85 0.83 0.88 0.93 1.05 1.17 1.33 1.40 1.28
0.00 0.01 0.01 0.01 0.01 0.01 0.03 0.02 0.01 0.01 0.02 0.03 0.05 0.05 0.05 0.04 0.02 0.03 0.05 0.07 0.08 0.09 0.16 0.22 0.26 0.22 0.22 0.26 0.33 0.45 0.57 0.64 0.73 0.85 0.93 0.89 0.84 0.90 0.95 0.98 1.07 1.16 1.13
0.00 0.01 0.01 0.01 0.01 0.01 0.01 0.01 0.01 0.01 0.02 0.02 0.05 0.06 0.06 0.07 0.04 0.02 0.03 0.05 0.06 0.10 0.13 0.17 0.18 0.19 0.22 0.24 0.27 0.35 0.49 0.68 0.85 0.85 0.79 0.76 0.79 0.84 0.83 0.93 1.01 1.06 1.06
0.00 0.00 0.00 0.01 0.01 0.02 0.01 0.01 0.01 0.01 0.01 0.02 0.02 0.04 0.05 0.07 0.04 0.03 0.05 0.07 0.08 0.11 0.13 0.13 0.14 0.19 0.22 0.23 0.29 0.40 0.55 0.75 0.83 0.75 0.70 0.61 0.63 0.78 0.82 0.81 0.85 0.88 0.93
0.00 0.00 0.00 0.00 0.01 0.02 0.01 0.01 0.01 0.01 0.01 0.01 0.02 0.03 0.02 0.03 0.02 0.01 0.03 0.05 0.06 0.06 0.10 0.17 0.22 0.28 0.34 0.40 0.50 0.57 0.58 0.62 0.68 0.62 0.65 0.60 0.57 0.64 0.68 0.67 0.68 0.66 0.67
0.00 0.00 0.00 0.00 0.01 0.01 0.02 0.02 0.01 0.01 0.01 0.01 0.01 0.01 0.02 0.00 0.00 0.01 0.01 0.02 0.02 0.05 0.13 0.22 0.30 0.38 0.43 0.51 0.55 0.56 0.56 0.57 0.60 0.57 0.56 0.56 0.51 0.51 0.52 0.54 0.56 0.58 0.62
0.00 0.00 0.01 0.01 0.01 0.01 0.02 0.03 0.04 0.03 0.02 0.01 0.01 0.01 0.01 0.00 0.00 0.01 0.01 0.02 0.02 0.04 0.11 0.23 0.43 0.47 0.43 0.48 0.51 0.50 0.43 0.36 0.36 0.38 0.37 0.36 0.35 0.36 0.40 0.41 0.42 0.47 0.50
0.00 0.00 0.00 0.01 0.01 0.01 0.01 0.02 0.02 0.04 0.05 0.05 0.03 0.01 0.01 0.01 0.01 0.01 0.01 0.03 0.03 0.04 0.07 0.14 0.27 0.31 0.33 0.37 0.35 0.32 0.25 0.19 0.19 0.19 0.19 0.20 0.21 0.24 0.26 0.30 0.30 0.29 0.35
0.00 0.00 0.01 0.01 0.01 0.01 0.02 0.02 0.02 0.02 0.03 0.04 0.05 0.03 0.02 0.02 0.02 0.01 0.01 0.03 0.03 0.05 0.07 0.12 0.15 0.17 0.18 0.16 0.15 0.14 0.12 0.12 0.11 0.10 0.12 0.14 0.15 0.16 0.16 0.17 0.21 0.24 0.24
0.01 0.01 0.01 0.01 0.01 0.02 0.02 0.03 0.03 0.03 0.03 0.04 0.04 0.04 0.04 0.04 0.04 0.03 0.03 0.03 0.03 0.05 0.05 0.06 0.07 0.07 0.06 0.05 0.05 0.06 0.07 0.09 0.08 0.07 0.07 0.09 0.11 0.12 0.11 0.11 0.12 0.13 0.16
0.01 0.02 0.02 0.02 0.02 0.03 0.03 0.04 0.04 0.05 0.05 0.05 0.05 0.05 0.05 0.04 0.04 0.04 0.04 0.03 0.03 0.04 0.04 0.03 0.03 0.03 0.03 0.03 0.04 0.04 0.05 0.08 0.09 0.08 0.08 0.08 0.10 0.10 0.10 0.10 0.09 0.09 0.11
0.01 0.02 0.02 0.02 0.03 0.04 0.04 0.04 0.05 0.05 0.05 0.06 0.07 0.08 0.07 0.06 0.05 0.04 0.04 0.03 0.03 0.03 0.03 0.03 0.03 0.04 0.04 0.04 0.04 0.05 0.06 0.08 0.11 0.11 0.10 0.09 0.09 0.09 0.08 0.08 0.09 0.09 0.10
0.01 0.01 0.02 0.03 0.04 0.05 0.05 0.05 0.05 0.06 0.07 0.07 0.08 0.09 0.10 0.08 0.06 0.05 0.04 0.03 0.03 0.03 0.03 0.04 0.04 0.05 0.05 0.06 0.06 0.07 0.08 0.09 0.11 0.14 0.15 0.13 0.10 0.09 0.08 0.08 0.07 0.08 0.08
0.01 0.01 0.02 0.03 0.04 0.06 0.06 0.06 0.05 0.06 0.07 0.08 0.08 0.09 0.10 0.10 0.09 0.07 0.06 0.04 0.04 0.04 0.04 0.05 0.05 0.06 0.06 0.07 0.08 0.08 0.10 0.11 0.12 0.15 0.17 0.18 0.15 0.12 0.10 0.09 0.09 0.09 0.09
0.01 0.02 0.03 0.04 0.05 0.06 0.07 0.08 0.07 0.07 0.07 0.08 0.09 0.09 0.09 0.09 0.08 0.08 0.06 0.05 0.05 0.05 0.05 0.06 0.07 0.07 0.07 0.07 0.08 0.09 0.12 0.12 0.11 0.12 0.15 0.18 0.18 0.17 0.15 0.13 0.12 0.11 0.11
0.01 0.02 0.03 0.04 0.05 0.06 0.07 0.08 0.09 0.09 0.10 0.09 0.09 0.10 0.10 0.10 0.09 0.08 0.07 0.06 0.05 0.05 0.05 0.05 0.06 0.06 0.07 0.07 0.08 0.11 0.12 0.10 0.09 0.10 0.13 0.16 0.19 0.20 0.20 0.19 0.17 0.16 0.15

GEFSGL_prec_meanprecacc_102.txt.gz
Total_Precipitation_Accumulation
0.93 1.03 1.06 0.85 0.61 0.49 0.47 0.45 0.44 0.47 0.52 0.60 0.55 0.52 0.58 0.62 0.59 0.67 0.78 0.88 0.97 1.01 1.03 1.06 1.12 1.20 1.27 1.32 1.43 1.49 1.51 1.41 1.12 0.99 0.87 0.77 0.77 0.76 0.80 0.74 0.79 0.84 0.80
0.80 0.79 0.65 0.47 0.37 0.34 0.30 0.25 0.22 0.22 0.22 0.29 0.32 0.32 0.40 0.51 0.52 0.58 0.62 0.64 0.71 0.75 0.78 0.83 0.89 0.96 1.05 1.12 1.19 1.27 1.38 1.41 1.28 1.12 0.98 0.86 0.77 0.76 0.91 0.97 0.94 0.88 0.89
0.44 0.42 0.39 0.32 0.30 0.26 0.21 0.19 0.17 0.16 0.16 0.20 0.23 0.26 0.29 0.39 0.50 0.56 0.58 0.54 0.53 0.52 0.52 0.56 0.65 0.73 0.84 0.92 0.98 1.05 1.18 1.23 1.30 1.18 1.11 1.03 0.89 0.80 0.91 0.93 1.00 1.15 1.09
0.25 0.23 0.22 0.23 0.23 0.23 0.23 0.23 0.18 0.14 0.16 0.15 0.14 0.16 0.24 0.34 0.43 0.51 0.55 0.52 0.49 0.48 0.49 0.49 0.53 0.54 0.59 0.70 0.84 1.01 1.14 1.25 1.31 1.23 1.19 1.16 1.08 0.97 1.00 1.05 1.13 1.22 1.28
0.15 0.16 0.18 0.18 0.18 0.18 0.20 0.20 0.17 0.14 0.12 0.08 0.06 0.08 0.16 0.21 0.26 0.40 0.45 0.45 0.48 0.45 0.46 0.51 0.52 0.48 0.47 0.51 0.52 0.69 0.89 1.10 1.21 1.27 1.27 1.29 1.23 1.14 1.03 1.08 1.18 1.33 1.44
0.03 0.05 0.08 0.11 0.13 0.15 0.15 0.15 0.13 0.11 0.09 0.07 0.05 0.05 0.07 0.08 0.14 0.21 0.30 0.40 0.47 0.50 0.51 0.54 0.52 0.46 0.50 0.48 0.47 0.49 0.58 0.70 0.87 1.00 1.09 1.13 1.18 1.24 1.30 1.31 1.33 1.39 1.48
0.01 0.01 0.02 0.03 0.04 0.05 0.05 0.06 0.05 0.04 0.04 0.04 0.04 0.04 0.04 0.04 0.04 0.07 0.17 0.33 0.47 0.48 0.47 0.61 0.67 0.60 0.59 0.62 0.63 0.56 0.49 0.46 0.58 0.77 0.90 0.93 1.00 1.10 1.29 1.36 1.38 1.38 1.30
0.00 0.00 0.01 0.01 0.02 0.02 0.02 0.02 0.02 0.02 0.02 0.03 0.04 0.07 0.04 0.02 0.02 0.03 0.08 0.23 0.38 0.42 0.42 0.54 0.79 0.83 0.73 0.69 0.73 0.82 0.73 0.57 0.54 0.58 0.72 0.80 0.83 0.98 1.29 1.50 1.48 1.29 1.21
0.00 0.00 0.00 0.01 0.01 0.01 0.01 0.01 0.01 0.01 0.02 0.02 0.03 0.05 0.04 0.03 0.03 0.03 0.06 0.17 0.28 0.32 0.36 0.48 0.64 0.79 0.73 0.69 0.69 0.76 0.80 0.70 0.62 0.61 0.56 0.61 0.71 0.88 1.14 1.38 1.46 1.40 1.26
0.00 0.00 0.00 0.00 0.01 0.01 0.01 0.01 0.01 0.01 0.02 0.02 0.02 0.02 0.02 0.01 0.02 0.04 0.05 0.10 0.15 0.15 0.22 0.38 0.54 0.54 0.50 0.55 0.67 0.78 0.87 0.72 0.61 0.68 0.67 0.68 0.69 0.87 1.19 1.37 1.44 1.38 1.26
0.00 0.00 0.01 0.01 0.01 0.02 0.03 0.02 0.01 0.02 0.02 0.02 0.03 0.02 0.02 0.01 0.02 0.03 0.06 0.07 0.09 0.09 0.15 0.29 0.38 0.35 0.34 0.41 0.53 0.67 0.80 0.66 0.68 0.82 0.85 0.83 0.88 0.93 1.06 1.18 1.33 1.41 1.29
0.00 0.01 0.01 0.01 0.01 0.02 0.03 0.02 0.01 0.02 0.02 0.03 0.05 0.05 0.05 0.05 0.03 0.03 0.05 0.07 0.08 0.09 0.16 0.22 0.26 0.22 0.22 0.26 0.33 0.45 0.57 0.64 0.73 0.85 0.93 0.89 0.85 0.90 0.96 0.99 1.08 1.17 1.14
0.00 0.01 0.01 0.01 0.01 0.01 0.02 0.02 0.01 0.02 0.02 0.03 0.05 0.07 0.07 0.07 0.05 0.03 0.04 0.05 0.07 0.10 0.13 0.17 0.18 0.19 0.22 0.24 0.27 0.35 0.49 0.68 0.85 0.85 0.79 0.77 0.79 0.84 0.84 0.93 1.02 1.06 1.06
0.00 0.00 0.00 0.01 0.01 0.02 0.01 0.01 0.01 0.02 0.02 0.02 0.03 0.04 0.06 0.08 0.05 0.04 0.06 0.08 0.08 0.11 0.13 0.14 0.14 0.19 0.22 0.23 0.29 0.40 0.55 0.75 0.83 0.75 0.70 0.61 0.63 0.78 0.82 0.82 0.86 0.89 0.94
0.00 0.00 0.00 0.00 0.01 0.03 0.02 0.01 0.01 0.01 0.01 0.02 0.03 0.04 0.03 0.03 0.03 0.03 0.04 0.05 0.06 0.06 0.11 0.17 0.22 0.28 0.34 0.41 0.50 0.57 0.58 0.62 0.69 0.62 0.65 0.60 0.57 0.64 0.68 0.67 0.68 0.66 0.67
0.00 0.00 0.00 0.00 0.01 0.01 0.03 0.02 0.01 0.01 0.02 0.01 0.01 0.02 0.03 0.02 0.02 0.02 0.03 0.03 0.03 0.05 0.13 0.22 0.30 0.38 0.43 0.51 0.55 0.56 0.56 0.57 0.60 0.57 0.56 0.56 0.51 0.51 0.53 0.54 0.56 0.58 0.63
0.00 0.00 0.01 0.01 0.01 0.01 0.02 0.04 0.04 0.04 0.02 0.02 0.02 0.02 0.02 0.02 0.02 0.02 0.03 0.03 0.03 0.05 0.11 0.23 0.43 0.47 0.44 0.48 0.51 0.50 0.43 0.36 0.36 0.38 0.37 0.36 0.35 0.36 0.40 0.41 0.42 0.47 0.50
0.00 0.00 0.01 0.01 0.01 0.01 0.02 0.02 0.03 0.04 0.06 0.06 0.04 0.03 0.03 0.03 0.03 0.03 0.03 0.05 0.05 0.05 0.07 0.15 0.28 0.31 0.33 0.37 0.35 0.32 0.26 0.20 0.19 0.19 0.19 0.20 0.21 0.24 0.26 0.30 0.30 0.30 0.35
0.00 0.01 0.01 0.01 0.01 0.02 0.02 0.03 0.03 0.03 0.03 0.05 0.06 0.05 0.05 0.04 0.04 0.03 0.04 0.05 0.05 0.07 0.09 0.13 0.17 0.19 0.19 0.17 0.16 0.14 0.12 0.12 0.11 0.10 0.12 0.14 0.15 0.16 0.16 0.17 0.21 0.24 0.24
0.01 0.01 0.02 0.02 0.02 0.02 0.03 0.03 0.04 0.04 0.04 0.05 0.05 0.06 0.08 0.08 0.07 0.06 0.05 0.06 0.06 0.07 0.08 0.09 0.10 0.09 0.08 0.07 0.06 0.07 0.07 0.09 0.09 0.08 0.07 0.09 0.11 0.12 0.12 0.11 0.12 0.13 0.16
0.01 0.02 0.02 0.02 0.02 0.03 0.03 0.04 0.05 0.06 0.07 0.07 0.07 0.08 0.10 0.10 0.09 0.09 0.08 0.08 0.08 0.09 0.08 0.08 0.07 0.06 0.06 0.05 0.05 0.05 0.06 0.08 0.09 0.08 0.08 0.08 0.10 0.10 0.10 0.10 0.09 0.10 0.11
0.01 0.02 0.02 0.03 0.03 0.04 0.04 0.05 0.06 0.06 0.07 0.08 0.09 0.10 0.12 0.12 0.12 0.11 0.10 0.10 0.10 0.11 0.11 0.10 0.09 0.09 0.08 0.07 0.06 0.06 0.07 0.09 0.11 0.11 0.10 0.09 0.09 0.09 0.08 0.08 0.09 0.09 0.10
0.02 0.02 0.03 0.03 0.04 0.05 0.05 0.06 0.06 0.07 0.08 0.09 0.10 0.12 0.13 0.14 0.14 0.13 0.12 0.11 0.12 0.12 0.12 0.12 0.11 0.11 0.11 0.10 0.08 0.08 0.09 0.10 0.12 0.15 0.15 0.13 0.11 0.09 0.08 0.08 0.08 0.08 0.09
0.02 0.02 0.02 0.03 0.05 0.06 0.06 0.06 0.07 0.08 0.09 0.10 0.11 0.12 0.13 0.14 0.15 0.15 0.14 0.13 0.13 0.13 0.13 0.12 0.12 0.12 0.12 0.12 0.11 0.11 0.12 0.13 0.14 0.16 0.19 0.19 0.16 0.13 0.11 0.10 0.09 0.09 0.09
0.02 0.02 0.03 0.04 0.05 0.06 0.07 0.08 0.08 0.08 0.10 0.11 0.12 0.13 0.13 0.12 0.13 0.15 0.15 0.14 0.14 0.14 0.15 0.15 0.15 0.14 0.13 0.13 0.14 0.14 0.16 0.15 0.14 0.15 0.18 0.20 0.19 0.18 0.16 0.14 0.12 0.11 0.11
0.01 0.02 0.04 0.04 0.05 0.06 0.08 0.09 0.10 0.11 0.12 0.12 0.12 0.13 0.14 0.14 0.14 0.14 0.15 0.14 0.14 0.13 0.14 0.15 0.16 0.16 0.16 0.15 0.16 0.18 0.19 0.15 0.14 0.14 0.16 0.19 0.21 0.21 0.20 0.19 0.17 0.16 0.15

GEFSGL_prec_meanprecacc_108.txt.gz
Total_Precipitation_Accumulation
0.93 1.03 1.06 0.85 0.61 0.49 0.47 0.45 0.44 0.47 0.52 0.60 0.55 0.52 0.58 0.62 0.59 0.68 0.78 0.89 0.98 1.03 1.04 1.07 1.14 1.20 1.29 1.34 1.45 1.52 1.55 1.48 1.22 1.08 0.93 0.81 0.83 0.83 0.84 0.80 0.87 0.90 0.82
0.80 0.79 0.65 0.47 0.37 0.34 0.30 0.25 0.22 0.22 0.22 0.29 0.32 0.32 0.40 0.51 0.52 0.58 0.63 0.65 0.71 0.75 0.78 0.85 0.90 0.97 1.06 1.14 1.21 1.30 1.42 1.45 1.35 1.19 1.05 0.91 0.81 0.82 0.97 1.02 1.01 0.94 0.92
0.44 0.42 0.39 0.32 0.30 0.26 0.21 0.19 0.17 0.16 0.16 0.20 0.23 0.26 0.29 0.39 0.50 0.56 0.58 0.54 0.53 0.52 0.52 0.56 0.65 0.74 0.85 0.93 0.99 1.07 1.20 1.26 1.34 1.24 1.16 1.07 0.91 0.83 0.95 0.97 1.04 1.21 1.13
0.25 0.23 0.22 0.23 0.23 0.23 0.23 0.23 0.18 0.14 0.16 0.15 0.14 0.16 0.24 0.34 0.43 0.51 0.55 0.52 0.49 0.49 0.49 0.50 0.53 0.54 0.60 0.70 0.84 1.02 1.17 1.30 1.35 1.28 1.23 1.18 1.10 0.99 1.03 1.09 1.17 1.26 1.32
0.15 0.16 0.18 0.18 0.18 0.18 0.20 0.20 0.17 0.14 0.12 0.08 0.06 0.08 0.16 0.21 0.26 0.40 0.45 0.45 0.48 0.45 0.47 0.51 0.52 0.48 0.47 0.51 0.52 0.70 0.91 1.13 1.26 1.32 1.32 1.33 1.26 1.18 1.06 1.11 1.22 1.36 1.48
0.03 0.05 0.08 0.11 0.13 0.15 0.15 0.15 0.13 0.11 0.09 0.07 0.05 0.05 0.07 0.08 0.14 0.21 0.30 0.40 0.47 0.50 0.51 0.54 0.52 0.46 0.50 0.48 0.47 0.49 0.59 0.73 0.90 1.04 1.12 1.17 1.22 1.29 1.34 1.34 1.36 1.43 1.51
0.01 0.01 0.02 0.03 0.04 0.05 0.05 0.06 0.05 0.04 0.04 0.04 0.04 0.04 0.04 0.04 0.04 0.08 0.17 0.33 0.47 0.48 0.47 0.61 0.67 0.60 0.59 0.62 0.63 0.57 0.50 0.47 0.60 0.80 0.92 0.97 1.05 1.15 1.35 1.40 1.42 1.42 1.33
0.00 0.00 0.01 0.01 0.02 0.02 0.02 0.02 0.02 0.02 0.02 0.03 0.04 0.07 0.05 0.02 0.02 0.03 0.08 0.23 0.38 0.42 0.42 0.54 0.79 0.83 0.73 0.69 0.73 0.82 0.74 0.57 0.55 0.59 0.73 0.84 0.89 1.03 1.34 1.56 1.52 1.32 1.24
0.00 0.00 0.00 0.01 0.01 0.01 0.01 0.01 0.01 0.01 0.02 0.03 0.03 0.05 0.05 0.04 0.03 0.04 0.07 0.18 0.28 0.32 0.36 0.48 0.64 0.79 0.73 0.69 0.69 0.76 0.80 0.70 0.63 0.62 0.57 0.64 0.76 0.92 1.17 1.41 1.49 1.43 1.29
0.00 0.00 0.00 0.00 0.01 0.02 0.01 0.01 0.01 0.02 0.03 0.02 0.02 0.02 0.02 0.02 0.03 0.05 0.06 0.11 0.15 0.15 0.22 0.38 0.54 0.54 0.50 0.55 0.67 0.78 0.87 0.72 0.61 0.69 0.68 0.70 0.71 0.88 1.20 1.38 1.45 1.40 1.28
0.00 0.00 0.01 0.01 0.01 0.02 0.03 0.02 0.02 0.02 0.03 0.03 0.03 0.03 0.03 0.02 0.03 0.05 0.07 0.08 0.10 0.10 0.15 0.29 0.38 0.35 0.34 0.42 0.53 0.67 0.80 0.66 0.68 0.82 0.86 0.83 0.89 0.94 1.06 1.18 1.34 1.42 1.31
0.00 0.01 0.01 0.01 0.01 0.02 0.03 0.02 0.02 0.02 0.03 0.05 0.06 0.06 0.06 0.06 0.04 0.05 0.08 0.09 0.10 0.11 0.16 0.23 0.26 0.22 0.23 0.27 0.33 0.46 0.57 0.64 0.73 0.85 0.93 0.90 0.85 0.90 0.96 0.99 1.09 1.18 1.14
0.00 0.01 0.01 0.01 0.01 0.01 0.02 0.02 0.02 0.02 0.03 0.05 0.08 0.08 0.08 0.08 0.07 0.05 0.06 0.08 0.09 0.11 0.14 0.18 0.19 0.20 0.22 0.25 0.28 0.35 0.49 0.68 0.85 0.86 0.80 0.77 0.79 0.84 0.84 0.94 1.02 1.07 1.07
0.00 0.00 0.00 0.01 0.01 0.02 0.01 0.01 0.02 0.02 0.03 0.04 0.06 0.07 0.07 0.10 0.07 0.06 0.09 0.11 0.11 0.13 0.15 0.15 0.15 0.20 0.23 0.24 0.29 0.40 0.56 0.75 0.83 0.75 0.71 0.61 0.63 0.78 0.82 0.82 0.86 0.89 0.94
0.00 0.00 0.00 0.00 0.01 0.03 0.02 0.01 0.01 0.01 0.02 0.03 0.05 0.07 0.05 0.05 0.05 0.06 0.09 0.10 0.10 0.10 0.13 0.19 0.24 0.30 0.35 0.42 0.51 0.58 0.59 0.63 0.69 0.62 0.66 0.60 0.57 0.65 0.69 0.68 0.69 0.66 0.68
0.00 0.00 0.00 0.00 0.01 0.02 0.03 0.02 0.02 0.02 0.02 0.02 0.02 0.04 0.05 0.03 0.04 0.05 0.07 0.09 0.08 0.10 0.17 0.25 0.33 0.41 0.47 0.53 0.57 0.58 0.57 0.58 0.62 0.59 0.57 0.57 0.52 0.52 0.54 0.55 0.57 0.59 0.63
0.00 0.00 0.01 0.01 0.01 0.02 0.02 0.04 0.05 0.04 0.02 0.02 0.02 0.03 0.03 0.04 0.04 0.05 0.06 0.08 0.09 0.11 0.15 0.26 0.46 0.50 0.48 0.53 0.56 0.54 0.45 0.39 0.39 0.41 0.39 0.38 0.37 0.38 0.41 0.43 0.43 0.48 0.51
0.00 0.00 0.01 0.01 0.01 0.02 0.02 0.03 0.04 0.05 0.06 0.06 0.04 0.04 0.04 0.05 0.05 0.05 0.06 0.09 0.10 0.10 0.12 0.18 0.31 0.35 0.38 0.43 0.42 0.38 0.31 0.24 0.23 0.23 0.22 0.23 0.24 0.26 0.28 0.31 0.31 0.31 0.36
0.00 0.01 0.01 0.01 0.02 0.02 0.03 0.03 0.03 0.03 0.04 0.05 0.06 0.05 0.05 0.06 0.07 0.06 0.06 0.08 0.09 0.11 0.13 0.17 0.21 0.24 0.25 0.24 0.24 0.23 0.21 0.20 0.18 0.16 0.17 0.19 0.19 0.19 0.18 0.19 0.23 0.26 0.26
0.01 0.02 0.02 0.02 0.02 0.02 0.03 0.04 0.04 0.04 0.05 0.05 0.06 0.07 0.09 0.10 0.10 0.09 0.08 0.09 0.10 0.11 0.12 0.13 0.15 0.15 0.16 0.16 0.17 0.19 0.19 0.21 0.20 0.18 0.16 0.16 0.16 0.15 0.14 0.14 0.15 0.16 0.18
0.01 0.02 0.03 0.03 0.03 0.03 0.04 0.05 0.05 0.06 0.07 0.07 0.07 0.09 0.10 0.11 0.13 0.13 0.13 0.12 0.13 0.14 0.14 0.13 0.13 0.14 0.15 0.17 0.19 0.20 0.19 0.21 0.22 0.20 0.18 0.17 0.16 0.14 0.13 0.13 0.14 0.14 0.15
0.02 0.02 0.03 0.03 0.04 0.04 0.05 0.05 0.06 0.06 0.07 0.08 0.09 0.11 0.12 0.13 0.14 0.16 0.15 0.14 0.14 0.15 0.16 0.17 0.16 0.16 0.18 0.20 0.22 0.23 0.23 0.23 0.24 0.23 0.21 0.19 0.17 0.15 0.13 0.13 0.13 0.14 0.15
0.02 0.02 0.03 0.04 0.05 0.05 0.06 0.06 0.07 0.07 0.09 0.09 0.11 0.12 0.14 0.15 0.16 0.16 0.16 0.15 0.15 0.16 0.18 0.18 0.18 0.18 0.19 0.21 0.24 0.25 0.26 0.26 0.28 0.29 0.28 0.24 0.20 0.16 0.14 0.13 0.13 0.13 0.14
0.02 0.02 0.03 0.04 0.05 0.06 0.06 0.06 0.07 0.08 0.09 0.10 0.11 0.13 0.14 0.16 0.17 0.18 0.17 0.16 0.16 0.17 0.17 0.19 0.20 0.19 0.19 0.22 0.24 0.27 0.28 0.29 0.30 0.32 0.33 0.32 0.26 0.21 0.17 0.15 0.14 0.14 0.15
0.02 0.02 0.03 0.04 0.05 0.07 0.07 0.08 0.09 0.09 0.10 0.11 0.13 0.14 0.14 0.14 0.15 0.17 0.18 0.17 0.17 0.17 0.18 0.21 0.22 0.23 0.22 0.23 0.25 0.28 0.33 0.33 0.31 0.32 0.35 0.35 0.31 0.27 0.24 0.20 0.18 0.16 0.16
0.01 0.02 0.04 0.05 0.06 0.07 0.08 0.09 0.10 0.11 0.12 0.13 0.13 0.15 0.16 0.16 0.16 0.16 0.17 0.17 0.16 0.16 0.17 0.19 0.21 0.22 0.23 0.23 0.26 0.31 0.35 0.32 0.30 0.31 0.34 0.36 0.35 0.31 0.29 0.27 0.23 0.21 0.20

GEFSGL_prec_meanprecacc_114.txt.gz
Total_Precipitation_Accumulation
0.93 1.03 1.06 0.85 0.61 0.49 0.47 0.45 0.44 0.47 0.52 0.60 0.55 0.52 0.58 0.62 0.59 0.68 0.78 0.89 0.98 1.03 1.04 1.08 1.15 1.21 1.30 1.35 1.46 1.54 1.56 1.49 1.23 1.11 0.95 0.83 0.86 0.87 0.88 0.84 0.91 0.93 0.85
0.80 0.79 0.65 0.47 0.37 0.34 0.30 0.25 0.22 0.22 0.22 0.29 0.32 0.32 0.40 0.51 0.52 0.58 0.63 0.65 0.71 0.75 0.78 0.85 0.91 0.97 1.07 1.14 1.21 1.30 1.42 1.46 1.35 1.20 1.06 0.93 0.83 0.85 1.00 1.06 1.06 0.99 0.96
0.44 0.42 0.39 0.32 0.30 0.26 0.21 0.19 0.17 0.16 0.16 0.20 0.23 0.26 0.29 0.39 0.50 0.56 0.58 0.54 0.53 0.52 0.52 0.56 0.65 0.74 0.86 0.94 0.99 1.07 1.21 1.26 1.34 1.24 1.17 1.08 0.92 0.85 0.98 1.00 1.09 1.27 1.18
0.25 0.23 0.22 0.23 0.23 0.23 0.23 0.23 0.18 0.14 0.16 0.15 0.14 0.16 0.24 0.34 0.43 0.51 0.55 0.52 0.49 0.49 0.49 0.50 0.53 0.54 0.60 0.71 0.85 1.03 1.18 1.30 1.35 1.29 1.24 1.20 1.11 1.00 1.06 1.13 1.22 1.32 1.37
0.15 0.16 0.18 0.18 0.18 0.18 0.20 0.20 0.17 0.14 0.12 0.08 0.06 0.08 0.16 0.22 0.26 0.40 0.46 0.45 0.48 0.45 0.47 0.51 0.52 0.49 0.48 0.52 0.53 0.71 0.92 1.14 1.27 1.33 1.33 1.34 1.27 1.18 1.08 1.14 1.27 1.42 1.53
0.03 0.05 0.08 0.11 0.13 0.15 0.15 0.15 0.13 0.11 0.09 0.07 0.05 0.05 0.07 0.08 0.14 0.21 0.30 0.40 0.47 0.50 0.51 0.54 0.52 0.47 0.51 0.49 0.48 0.50 0.61 0.74 0.91 1.05 1.14 1.20 1.23 1.30 1.36 1.37 1.40 1.47 1.54
0.01 0.01 0.02 0.03 0.04 0.05 0.05 0.06 0.05 0.04 0.04 0.04 0.04 0.04 0.04 0.04 0.05 0.08 0.18 0.34 0.48 0.49 0.47 0.61 0.67 0.60 0.59 0.63 0.64 0.57 0.51 0.50 0.63 0.81 0.94 0.99 1.06 1.17 1.36 1.42 1.44 1.45 1.36
0.00 0.00 0.01 0.01 0.02 0.02 0.02 0.02 0.02 0.02 0.02 0.03 0.05 0.07 0.05 0.02 0.02 0.03 0.09 0.24 0.39 0.43 0.43 0.55 0.79 0.84 0.73 0.69 0.73 0.82 0.74 0.58 0.56 0.61 0.75 0.86 0.90 1.05 1.37 1.59 1.56 1.35 1.27
0.00 0.00 0.00 0.01 0.01 0.01 0.01 0.01 0.01 0.01 0.03 0.03 0.04 0.06 0.05 0.04 0.04 0.04 0.08 0.19 0.29 0.33 0.37 0.49 0.65 0.80 0.74 0.70 0.70 0.77 0.80 0.70 0.63 0.63 0.59 0.66 0.78 0.95 1.20 1.44 1.54 1.48 1.33
0.00 0.00 0.00 0.00 0.01 0.02 0.01 0.01 0.01 0.02 0.03 0.03 0.03 0.03 0.03 0.02 0.04 0.05 0.07 0.13 0.17 0.17 0.23 0.40 0.55 0.55 0.51 0.57 0.68 0.79 0.88 0.72 0.62 0.69 0.69 0.71 0.73 0.91 1.22 1.41 1.49 1.45 1.34
0.00 0.00 0.01 0.01 0.01 0.02 0.03 0.02 0.02 0.02 0.03 0.03 0.04 0.04 0.04 0.03 0.04 0.05 0.08 0.10 0.12 0.12 0.17 0.31 0.40 0.37 0.36 0.43 0.54 0.68 0.81 0.66 0.68 0.82 0.86 0.84 0.91 0.96 1.08 1.20 1.36 1.44 1.34
0.00 0.01 0.01 0.01 0.01 0.02 0.03 0.02 0.02 0.02 0.03 0.05 0.07 0.08 0.08 0.08 0.06 0.06 0.08 0.10 0.11 0.13 0.19 0.25 0.29 0.25 0.25 0.29 0.35 0.47 0.58 0.65 0.73 0.86 0.94 0.91 0.86 0.93 0.98 1.01 1.10 1.20 1.16
0.00 0.01 0.01 0.01 0.01 0.01 0.02 0.02 0.02 0.02 0.03 0.05 0.08 0.10 0.11 0.12 0.09 0.06 0.06 0.08 0.11 0.14 0.17 0.21 0.22 0.22 0.25 0.27 0.29 0.37 0.51 0.70 0.86 0.86 0.80 0.77 0.80 0.86 0.86 0.96 1.04 1.08 1.08
0.00 0.00 0.00 0.01 0.01 0.02 0.01 0.01 0.02 0.02 0.03 0.04 0.06 0.08 0.09 0.12 0.08 0.07 0.09 0.11 0.12 0.16 0.18 0.18 0.18 0.23 0.26 0.26 0.32 0.43 0.58 0.78 0.85 0.77 0.72 0.62 0.65 0.80 0.84 0.84 0.88 0.91 0.96
0.00 0.00 0.00 0.00 0.01 0.03 0.02 0.01 0.01 0.01 0.02 0.03 0.05 0.07 0.06 0.06 0.07 0.07 0.09 0.11 0.12 0.12 0.16 0.23 0.27 0.33 0.38 0.45 0.55 0.62 0.63 0.67 0.73 0.65 0.68 0.62 0.60 0.67 0.71 0.70 0.71 0.68 0.69
0.00 0.00 0.00 0.00 0.01 0.02 0.03 0.02 0.02 0.02 0.02 0.02 0.02 0.04 0.06 0.04 0.05 0.06 0.08 0.09 0.09 0.11 0.20 0.28 0.36 0.44 0.49 0.57 0.62 0.63 0.62 0.63 0.66 0.62 0.61 0.60 0.55 0.55 0.57 0.58 0.60 0.62 0.66
0.00 0.00 0.01 0.01 0.01 0.02 0.02 0.04 0.05 0.04 0.02 0.02 0.02 0.03 0.04 0.04 0.04 0.06 0.07 0.08 0.09 0.12 0.18 0.29 0.48 0.53 0.51 0.57 0.61 0.60 0.51 0.44 0.45 0.46 0.45 0.43 0.41 0.42 0.46 0.47 0.48 0.52 0.54
0.00 0.00 0.01 0.01 0.01 0.02 0.02 0.03 0.04 0.05 0.06 0.06 0.04 0.04 0.04 0.05 0.06 0.06 0.07 0.10 0.10 0.11 0.13 0.21 0.34 0.38 0.41 0.47 0.47 0.45 0.38 0.31 0.30 0.30 0.30 0.31 0.31 0.33 0.34 0.37 0.36 0.35 0.40
0.00 0.01 0.01 0.01 0.02 0.02 0.03 0.03 0.03 0.03 0.04 0.05 0.06 0.05 0.05 0.07 0.07 0.07 0.07 0.09 0.10 0.12 0.14 0.19 0.23 0.27 0.28 0.27 0.28 0.29 0.28 0.29 0.28 0.27 0.28 0.29 0.30 0.30 0.28 0.27 0.29 0.31 0.30
0.01 0.02 0.02 0.02 0.02 0.02 0.03 0.04 0.04 0.04 0.05 0.05 0.06 0.07 0.09 0.10 0.10 0.10 0.09 0.10 0.11 0.12 0.13 0.15 0.17 0.17 0.18 0.19 0.20 0.23 0.25 0.29 0.30 0.29 0.27 0.28 0.30 0.30 0.28 0.26 0.24 0.24 0.25
0.01 0.02 0.03 0.03 0.03 0.03 0.04 0.05 0.05 0.06 0.07 0.07 0.07 0.09 0.10 0.11 0.13 0.14 0.14 0.14 0.14 0.14 0.15 0.14 0.15 0.16 0.17 0.19 0.22 0.24 0.24 0.28 0.31 0.30 0.30 0.30 0.31 0.31 0.30 0.29 0.28 0.26 0.25
0.02 0.02 0.03 0.03 0.04 0.04 0.05 0.05 0.06 0.06 0.07 0.08 0.09 0.11 0.12 0.13 0.14 0.16 0.16 0.15 0.15 0.16 0.17 0.17 0.17 0.17 0.20 0.22 0.24 0.26 0.27 0.30 0.32 0.33 0.32 0.32 0.33 0.33 0.32 0.31 0.31 0.31 0.29
0.02 0.02 0.03 0.04 0.05 0.05 0.06 0.06 0.07 0.07 0.09 0.09 0.11 0.12 0.14 0.15 0.16 0.16 0.16 0.15 0.16 0.17 0.18 0.19 0.19 0.18 0.20 0.23 0.26 0.28 0.29 0.31 0.35 0.39 0.40 0.38 0.36 0.35 0.33 0.32 0.32 0.32 0.31
0.02 0.02 0.03 0.04 0.05 0.06 0.06 0.06 0.07 0.08 0.09 0.10 0.11 0.13 0.14 0.16 0.17 0.18 0.17 0.16 0.16 0.17 0.18 0.20 0.20 0.19 0.20 0.22 0.26 0.29 0.31 0.32 0.36 0.41 0.47 0.47 0.42 0.37 0.36 0.33 0.31 0.31 0.33
0.02 0.02 0.03 0.04 0.05 0.07 0.07 0.08 0.09 0.09 0.10 0.11 0.13 0.14 0.14 0.14 0.15 0.17 0.18 0.18 0.17 0.17 0.18 0.21 0.23 0.23 0.23 0.24 0.27 0.30 0.35 0.36 0.37 0.39 0.45 0.50 0.47 0.43 0.40 0.37 0.34 0.32 0.32
0.01 0.02 0.04 0.05 0.06 0.07 0.08 0.09 0.10 0.11 0.12 0.13 0.14 0.15 0.16 0.16 0.16 0.16 0.17 0.18 0.17 0.16 0.17 0.19 0.21 0.23 0.23 0.24 0.27 0.32 0.37 0.35 0.36 0.38 0.41 0.46 0.49 0.47 0.46 0.44 0.40 0.37 0.36

GEFSGL_prec_meanprecacc_120.txt.gz
Total_Precipitation_Accumulation
0.93 1.03 1.06 0.85 0.61 0.49 0.47 0.45 0.44 0.47 0.52 0.60 0.55 0.52 0.58 0.62 0.59 0.68 0.78 0.89 0.98 1.03 1.04 1.08 1.15 1.22 1.30 1.35 1.47 1.54 1.56 1.49 1.23 1.11 0.96 0.84 0.88 0.91 0.93 0.88 0.95 0.97 0.89
0.80 0.79 0.65 0.47 0.37 0.34 0.30 0.25 0.22 0.22 0.22 0.29 0.32 0.32 0.40 0.51 0.52 0.58 0.63 0.65 0.71 0.75 0.78 0.85 0.91 0.97 1.07 1.15 1.22 1.30 1.43 1.46 1.36 1.20 1.07 0.94 0.85 0.87 1.03 1.09 1.09 1.02 0.99
0.44 0.42 0.39 0.32 0.30 0.26 0.21 0.19 0.17 0.16 0.16 0.20 0.23 0.26 0.29 0.39 0.50 0.56 0.58 0.54 0.53 0.52 0.52 0.56 0.66 0.74 0.86 0.94 1.00 1.08 1.22 1.27 1.34 1.25 1.18 1.09 0.93 0.86 1.00 1.02 1.11 1.29 1.20
0.25 0.23 0.22 0.23 0.23 0.23 0.23 0.23 0.18 0.14 0.16 0.15 0.14 0.16 0.24 0.34 0.43 0.51 0.55 0.52 0.49 0.49 0.49 0.50 0.53 0.54 0.61 0.72 0.86 1.03 1.18 1.31 1.36 1.29 1.24 1.20 1.11 1.02 1.07 1.14 1.23 1.33 1.39
0.15 0.16 0.18 0.18 0.18 0.18 0.20 0.20 0.17 0.14 0.12 0.08 0.06 0.08 0.16 0.22 0.26 0.40 0.46 0.45 0.48 0.45 0.47 0.51 0.52 0.49 0.49 0.53 0.54 0.72 0.93 1.15 1.28 1.33 1.34 1.35 1.27 1.19 1.10 1.16 1.28 1.42 1.54
0.03 0.05 0.08 0.11 0.13 0.15 0.15 0.15 0.13 0.11 0.09 0.07 0.05 0.05 0.07 0.08 0.14 0.21 0.30 0.40 0.47 0.50 0.51 0.54 0.52 0.47 0.52 0.51 0.49 0.51 0.62 0.76 0.92 1.05 1.15 1.21 1.24 1.31 1.37 1.38 1.41 1.49 1.56
0.01 0.01 0.02 0.03 0.04 0.05 0.05 0.06 0.05 0.04 0.04 0.04 0.04 0.04 0.04 0.04 0.05 0.08 0.18 0.34 0.48 0.49 0.48 0.61 0.67 0.61 0.60 0.64 0.66 0.60 0.53 0.52 0.64 0.82 0.95 1.02 1.09 1.18 1.38 1.43 1.45 1.46 1.38
0.00 0.00 0.01 0.01 0.02 0.02 0.02 0.02 0.02 0.02 0.02 0.03 0.05 0.07 0.05 0.02 0.02 0.03 0.09 0.24 0.39 0.43 0.43 0.55 0.80 0.84 0.74 0.70 0.75 0.85 0.77 0.61 0.58 0.62 0.76 0.89 0.93 1.08 1.40 1.61 1.57 1.37 1.30
0.00 0.00 0.00 0.01 0.01 0.01 0.01 0.01 0.01 0.01 0.03 0.03 0.04 0.06 0.05 0.04 0.04 0.04 0.08 0.19 0.29 0.33 0.37 0.49 0.65 0.80 0.74 0.70 0.70 0.78 0.81 0.72 0.65 0.64 0.60 0.68 0.80 0.97 1.23 1.48 1.57 1.50 1.36
0.00 0.00 0.00 0.00 0.01 0.02 0.01 0.01 0.01 0.02 0.03 0.03 0.03 0.03 0.03 0.02 0.04 0.05 0.07 0.13 0.17 0.17 0.23 0.40 0.55 0.55 0.52 0.57 0.69 0.80 0.89 0.73 0.63 0.71 0.70 0.72 0.74 0.92 1.24 1.43 1.52 1.48 1.37
0.00 0.00 0.01 0.01 0.01 0.02 0.03 0.02 0.02 0.02 0.03 0.03 0.04 0.04 0.04 0.03 0.04 0.05 0.08 0.10 0.12 0.12 0.17 0.31 0.40 0.37 0.36 0.43 0.55 0.69 0.82 0.68 0.69 0.84 0.88 0.86 0.92 0.97 1.09 1.22 1.39 1.48 1.38
0.00 0.01 0.01 0.01 0.01 0.02 0.03 0.02 0.02 0.02 0.03 0.05 0.07 0.08 0.08 0.08 0.06 0.06 0.08 0.10 0.11 0.13 0.19 0.25 0.29 0.25 0.25 0.29 0.35 0.48 0.59 0.67 0.75 0.88 0.96 0.92 0.88 0.94 1.00 1.02 1.12 1.22 1.20
0.00 0.01 0.01 0.01 0.01 0.01 0.02 0.02 0.02 0.02 0.03 0.05 0.08 0.10 0.11 0.12 0.09 0.06 0.06 0.08 0.11 0.14 0.17 0.21 0.22 0.23 0.25 0.27 0.30 0.37 0.52 0.72 0.89 0.89 0.83 0.79 0.82 0.88 0.88 0.98 1.05 1.10 1.11
0.00 0.00 0.00 0.01 0.01 0.02 0.01 0.01 0.02 0.02 0.03 0.04 0.06 0.08 0.09 0.12 0.08 0.07 0.10 0.11 0.12 0.16 0.18 0.18 0.18 0.23 0.26 0.27 0.32 0.44 0.60 0.80 0.89 0.81 0.75 0.65 0.66 0.81 0.86 0.86 0.90 0.93 0.98
0.00 0.00 0.00 0.00 0.01 0.03 0.02 0.01 0.01 0.01 0.02 0.03 0.05 0.07 0.06 0.06 0.07 0.08 0.10 0.11 0.12 0.12 0.16 0.23 0.27 0.33 0.39 0.45 0.56 0.63 0.65 0.70 0.76 0.69 0.72 0.66 0.62 0.69 0.73 0.72 0.74 0.71 0.72
0.00 0.00 0.00 0.00 0.01 0.02 0.03 0.02 0.02 0.02 0.02 0.02 0.02 0.04 0.06 0.04 0.05 0.07 0.08 0.10 0.09 0.11 0.20 0.28 0.36 0.44 0.50 0.57 0.63 0.64 0.64 0.66 0.69 0.66 0.64 0.64 0.58 0.58 0.60 0.61 0.63 0.66 0.69
0.00 0.00 0.01 0.01 0.01 0.02 0.02 0.04 0.05 0.04 0.02 0.02 0.02 0.03 0.04 0.04 0.05 0.06 0.08 0.09 0.09 0.12 0.18 0.29 0.48 0.54 0.52 0.58 0.62 0.61 0.52 0.46 0.48 0.50 0.49 0.47 0.46 0.46 0.50 0.51 0.52 0.57 0.59
0.00 0.00 0.01 0.01 0.01 0.02 0.02 0.03 0.04 0.05 0.06 0.06 0.04 0.04 0.04 0.05 0.06 0.06 0.08 0.10 0.10 0.11 0.13 0.21 0.34 0.38 0.41 0.47 0.47 0.45 0.39 0.32 0.32 0.33 0.33 0.35 0.36 0.38 0.39 0.42 0.41 0.41 0.46
0.00 0.01 0.01 0.01 0.02 0.02 0.03 0.03 0.03 0.03 0.04 0.05 0.06 0.05 0.05 0.07 0.07 0.07 0.08 0.09 0.10 0.12 0.14 0.19 0.24 0.27 0.28 0.28 0.28 0.29 0.29 0.30 0.29 0.29 0.31 0.32 0.34 0.34 0.33 0.32 0.35 0.38 0.38
0.01 0.02 0.02 0.02 0.02 0.02 0.03 0.04 0.04 0.04 0.05 0.05 0.06 0.07 0.09 0.10 0.10 0.10 0.09 0.10 0.11 0.12 0.13 0.15 0.17 0.17 0.18 0.19 0.20 0.23 0.25 0.29 0.30 0.30 0.30 0.31 0.33 0.34 0.32 0.30 0.30 0.30 0.32
0.01 0.02 0.03 0.03 0.03 0.03 0.04 0.05 0.05 0.06 0.07 0.07 0.07 0.09 0.10 0.11 0.13 0.14 0.14 0.14 0.14 0.14 0.15 0.14 0.15 0.16 0.17 0.19 0.22 0.24 0.25 0.28 0.31 0.31 0.32 0.33 0.34 0.35 0.34 0.33 0.33 0.32 0.32
0.02 0.02 0.03 0.03 0.04 0.04 0.05 0.05 0.06 0.06 0.07 0.08 0.09 0.11 0.12 0.13 0.14 0.16 0.16 0.15 0.15 0.16 0.17 0.17 0.17 0.17 0.20 0.22 0.25 0.27 0.28 0.30 0.33 0.33 0.34 0.35 0.37 0.37 0.36 0.36 0.37 0.37 0.36
0.02 0.02 0.03 0.04 0.05 0.05 0.06 0.06 0.07 0.07 0.09 0.09 0.11 0.12 0.14 0.15 0.16 0.16 0.16 0.15 0.16 0.17 0.18 0.19 0.19 0.18 0.20 0.23 0.26 0.28 0.30 0.32 0.36 0.40 0.42 0.41 0.39 0.39 0.38 0.37 0.37 0.38 0.38
0.02 0.02 0.03 0.04 0.05 0.06 0.06 0.06 0.07 0.08 0.09 0.10 0.11 0.13 0.14 0.16 0.17 0.18 0.17 0.16 0.16 0.17 0.18 0.20 0.20 0.19 0.20 0.22 0.26 0.29 0.31 0.33 0.37 0.43 0.48 0.49 0.45 0.41 0.40 0.38 0.36 0.37 0.39
0.02 0.02 0.03 0.04 0.05 0.07 0.07 0.08 0.09 0.09 0.10 0.11 0.13 0.14 0.14 0.14 0.15 0.17 0.18 0.18 0.17 0.17 0.18 0.21 0.23 0.23 0.23 0.24 0.27 0.30 0.36 0.37 0.38 0.41 0.47 0.52 0.50 0.47 0.44 0.41 0.39 0.37 0.38
0.01 0.02 0.04 0.05 0.06 0.07 0.08 0.09 0.10 0.11 0.13 0.13 0.14 0.15 0.16 0.16 0.16 0.16 0.17 0.18 0.17 0.16 0.17 0.19 0.21 0.23 0.24 0.25 0.27 0.32 0.37 0.36 0.36 0.40 0.43 0.48 0.52 0.50 0.49 0.48 0.45 0.43 0.41

GEFSGL_prec_meanprecacc_126.txt.gz
Total_Precipitation_Accumulation
0.93 1.03 1.06 0.85 0.61 0.49 0.47 0.45 0.44 0.47 0.52 0.60 0.55 0.52 0.58 0.62 0.59 0.68 0.78 0.89 0.98 1.03 1.04 1.08 1.15 1.22 1.31 1.36 1.47 1.54 1.57 1.50 1.24 1.12 0.96 0.85 0.89 0.92 0.94 0.91 0.97 1.00 0.91
0.80 0.79 0.65 0.47 0.37 0.34 0.30 0.25 0.22 0.22 0.22 0.29 0.32 0.32 0.40 0.51 0.52 0.58 0.63 0.65 0.71 0.75 0.78 0.85 0.91 0.98 1.08 1.15 1.22 1.31 1.43 1.47 1.36 1.21 1.07 0.95 0.85 0.88 1.05 1.11 1.10 1.03 1.01
0.44 0.42 0.39 0.32 0.30 0.26 0.21 0.19 0.17 0.16 0.16 0.20 0.23 0.26 0.29 0.39 0.50 0.56 0.58 0.54 0.53 0.52 0.52 0.56 0.66 0.74 0.87 0.95 1.01 1.09 1.23 1.27 1.35 1.25 1.18 1.09 0.93 0.87 1.00 1.03 1.12 1.30 1.21
0.25 0.23 0.22 0.23 0.23 0.23 0.23 0.23 0.18 0.14 0.16 0.15 0.14 0.16 0.24 0.34 0.43 0.51 0.55 0.52 0.49 0.49 0.49 0.50 0.53 0.54 0.62 0.73 0.86 1.04 1.19 1.32 1.36 1.29 1.24 1.21 1.11 1.02 1.08 1.14 1.24 1.34 1.40
0.15 0.16 0.18 0.18 0.18 0.18 0.20 0.20 0.17 0.14 0.12 0.08 0.06 0.08 0.16 0.22 0.26 0.40 0.46 0.45 0.48 0.45 0.47 0.51 0.52 0.49 0.49 0.53 0.55 0.73 0.94 1.16 1.28 1.34 1.35 1.36 1.28 1.20 1.10 1.17 1.29 1.43 1.55
0.03 0.05 0.08 0.11 0.13 0.15 0.15 0.15 0.13 0.11 0.09 0.07 0.05 0.05 0.07 0.08 0.14 0.21 0.30 0.40 0.47 0.50 0.51 0.54 0.52 0.47 0.52 0.51 0.49 0.52 0.62 0.77 0.94 1.07 1.17 1.22 1.25 1.32 1.38 1.39 1.42 1.50 1.58
0.01 0.01 0.02 0.03 0.04 0.05 0.05 0.06 0.05 0.04 0.04 0.04 0.04 0.04 0.04 0.04 0.05 0.08 0.18 0.34 0.48 0.49 0.48 0.61 0.67 0.61 0.60 0.64 0.66 0.60 0.54 0.53 0.66 0.84 0.97 1.03 1.10 1.20 1.39 1.44 1.47 1.48 1.40
0.00 0.00 0.01 0.01 0.02 0.02 0.02 0.02 0.02 0.02 0.02 0.03 0.05 0.07 0.05 0.02 0.02 0.03 0.09 0.24 0.39 0.43 0.43 0.55 0.80 0.84 0.74 0.70 0.75 0.85 0.77 0.61 0.59 0.64 0.78 0.90 0.95 1.10 1.41 1.63 1.60 1.39 1.32
0.00 0.00 0.00 0.01 0.01 0.01 0.01 0.01 0.01 0.01 0.03 0.03 0.04 0.06 0.05 0.04 0.04 0.04 0.08 0.19 0.29 0.33 0.37 0.49 0.65 0.80 0.75 0.71 0.71 0.78 0.82 0.72 0.66 0.66 0.62 0.70 0.83 0.99 1.25 1.50 1.61 1.55 1.39
0.00 0.00 0.00 0.00 0.01 0.02 0.01 0.01 0.01 0.02 0.03 0.03 0.03 0.03 0.03 0.02 0.04 0.05 0.07 0.13 0.17 0.17 0.24 0.40 0.55 0.55 0.52 0.58 0.69 0.80 0.89 0.74 0.64 0.72 0.71 0.74 0.76 0.94 1.26 1.46 1.56 1.54 1.42
0.00 0.00 0.01 0.01 0.01 0.02 0.03 0.02 0.02 0.02 0.03 0.03 0.04 0.04 0.04 0.03 0.04 0.05 0.08 0.10 0.12 0.13 0.18 0.32 0.40 0.37 0.36 0.44 0.56 0.69 0.83 0.69 0.70 0.84 0.88 0.87 0.94 0.99 1.11 1.24 1.43 1.54 1.42
0.00 0.01 0.01 0.01 0.01 0.02 0.03 0.02 0.02 0.02 0.03 0.05 0.07 0.08 0.08 0.08 0.06 0.06 0.08 0.10 0.12 0.14 0.19 0.26 0.29 0.25 0.25 0.29 0.36 0.48 0.60 0.67 0.76 0.88 0.96 0.93 0.89 0.96 1.01 1.04 1.14 1.27 1.25
0.00 0.01 0.01 0.01 0.01 0.01 0.02 0.02 0.02 0.02 0.03 0.05 0.08 0.10 0.11 0.12 0.09 0.06 0.07 0.08 0.12 0.14 0.17 0.21 0.22 0.23 0.26 0.27 0.30 0.38 0.53 0.72 0.89 0.90 0.84 0.80 0.83 0.89 0.90 1.00 1.08 1.12 1.15
0.00 0.00 0.00 0.01 0.01 0.02 0.01 0.01 0.02 0.02 0.03 0.04 0.06 0.08 0.09 0.12 0.08 0.07 0.10 0.12 0.13 0.16 0.18 0.18 0.18 0.23 0.27 0.27 0.33 0.45 0.62 0.81 0.89 0.81 0.76 0.66 0.67 0.82 0.88 0.89 0.93 0.95 1.01
0.00 0.00 0.00 0.00 0.01 0.03 0.02 0.01 0.01 0.01 0.02 0.03 0.05 0.07 0.06 0.06 0.07 0.08 0.10 0.11 0.12 0.12 0.16 0.23 0.27 0.33 0.39 0.46 0.56 0.65 0.67 0.71 0.77 0.69 0.73 0.67 0.63 0.70 0.74 0.74 0.77 0.74 0.74
0.00 0.00 0.00 0.00 0.01 0.02 0.03 0.02 0.02 0.02 0.02 0.02 0.02 0.04 0.06 0.04 0.05 0.07 0.08 0.10 0.09 0.11 0.20 0.28 0.36 0.44 0.50 0.58 0.64 0.65 0.65 0.67 0.70 0.66 0.65 0.64 0.59 0.59 0.61 0.62 0.66 0.69 0.72
0.00 0.00 0.01 0.01 0.01 0.02 0.02 0.04 0.05 0.04 0.02 0.02 0.02 0.03 0.04 0.04 0.05 0.06 0.08 0.09 0.09 0.12 0.18 0.29 0.48 0.54 0.52 0.58 0.62 0.61 0.53 0.47 0.48 0.50 0.49 0.48 0.46 0.47 0.51 0.53 0.54 0.60 0.62
0.00 0.00 0.01 0.01 0.01 0.02 0.02 0.03 0.04 0.05 0.06 0.06 0.04 0.04 0.04 0.05 0.06 0.06 0.08 0.10 0.10 0.11 0.13 0.21 0.34 0.38 0.41 0.47 0.47 0.45 0.39 0.33 0.33 0.33 0.34 0.35 0.36 0.39 0.40 0.43 0.43 0.43 0.48
0.00 0.01 0.01 0.01 0.02 0.02 0.03 0.03 0.03 0.03 0.04 0.05 0.06 0.05 0.05 0.07 0.07 0.07 0.08 0.09 0.10 0.12 0.14 0.19 0.24 0.27 0.28 0.28 0.28 0.29 0.29 0.30 0.29 0.29 0.31 0.33 0.34 0.35 0.34 0.33 0.36 0.40 0.40
0.01 0.02 0.02 0.02 0.02 0.02 0.03 0.04 0.04 0.04 0.05 0.05 0.06 0.07 0.09 0.10 0.10 0.10 0.09 0.10 0.11 0.12 0.13 0.15 0.17 0.17 0.18 0.19 0.20 0.23 0.25 0.29 0.30 0.30 0.30 0.31 0.34 0.34 0.33 0.31 0.31 0.33 0.34
0.01 0.02 0.03 0.03 0.03 0.03 0.04 0.05 0.05 0.06 0.07 0.07 0.07 0.09 0.10 0.11 0.13 0.14 0.14 0.14 0.14 0.14 0.15 0.14 0.15 0.16 0.17 0.19 0.22 0.24 0.25 0.28 0.31 0.31 0.33 0.34 0.35 0.35 0.35 0.35 0.34 0.34 0.34
0.02 0.02 0.03 0.03 0.04 0.04 0.05 0.05 0.06 0.06 0.07 0.08 0.09 0.11 0.12 0.13 0.14 0.16 0.16 0.15 0.15 0.16 0.17 0.17 0.17 0.17 0.20 0.22 0.25 0.27 0.28 0.30 0.33 0.34 0.35 0.36 0.38 0.38 0.37 0.37 0.38 0.39 0.38
0.02 0.02 0.03 0.04 0.05 0.05 0.06 0.06 0.07 0.07 0.09 0.09 0.11 0.12 0.14 0.15 0.16 0.16 0.16 0.15 0.16 0.17 0.18 0.19 0.19 0.18 0.20 0.23 0.26 0.29 0.30 0.32 0.36 0.40 0.43 0.42 0.41 0.40 0.39 0.38 0.38 0.40 0.40
0.02 0.02 0.03 0.04 0.05 0.06 0.06 0.06 0.07 0.08 0.09 0.10 0.11 0.13 0.14 0.16 0.17 0.18 0.17 0.16 0.17 0.17 0.18 0.20 0.20 0.20 0.20 0.23 0.26 0.29 0.31 0.33 0.37 0.43 0.49 0.50 0.46 0.43 0.42 0.40 0.38 0.39 0.42
0.02 0.02 0.03 0.04 0.05 0.07 0.07 0.08 0.09 0.09 0.10 0.12 0.13 0.14 0.14 0.14 0.15 0.17 0.18 0.18 0.17 0.17 0.19 0.21 0.23 0.23 0.23 0.24 0.27 0.30 0.36 0.37 0.38 0.41 0.48 0.53 0.51 0.49 0.47 0.45 0.42 0.40 0.42
0.01 0.02 0.04 0.05 0.06 0.07 0.08 0.09 0.10 0.11 0.13 0.13 0.14 0.15 0.16 0.16 0.16 0.17 0.18 0.18 0.17 0.16 0.17 0.19 0.22 0.23 0.24 0.25 0.27 0.33 0.37 0.36 0.37 0.40 0.44 0.50 0.54 0.53 0.52 0.52 0.49 0.48 0.46

GEFSGL_prec_meanprecacc_132.txt.gz
Total_Precipitation_Accumulation
0.93 1.03 1.06 0.85 0.61 0.49 0.47 0.45 0.44 0.47 0.52 0.60 0.55 0.52 0.58 0.62 0.59 0.68 0.78 0.90 0.99 1.04 1.05 1.10 1.17 1.23 1.32 1.37 1.49 1.56 1.59 1.53 1.28 1.13 0.98 0.88 0.92 0.96 0.97 0.93 0.99 1.01 0.92
0.80 0.79 0.65 0.47 0.37 0.34 0.30 0.25 0.22 0.22 0.22 0.29 0.32 0.32 0.40 0.51 0.52 0.58 0.63 0.65 0.71 0.76 0.80 0.87 0.92 0.98 1.09 1.17 1.24 1.33 1.46 1.49 1.38 1.22 1.08 0.96 0.89 0.93 1.09 1.14 1.12 1.05 1.03
0.44 0.42 0.39 0.32 0.30 0.26 0.21 0.19 0.17 0.16 0.16 0.20 0.23 0.26 0.29 0.39 0.50 0.56 0.58 0.54 0.54 0.52 0.52 0.57 0.67 0.74 0.88 0.97 1.02 1.11 1.25 1.29 1.36 1.26 1.19 1.11 0.96 0.90 1.04 1.06 1.15 1.31 1.22
0.25 0.23 0.22 0.23 0.23 0.23 0.23 0.23 0.18 0.14 0.16 0.15 0.14 0.16 0.24 0.34 0.43 0.51 0.55 0.52 0.49 0.49 0.49 0.50 0.53 0.55 0.62 0.74 0.87 1.05 1.21 1.33 1.37 1.30 1.26 1.22 1.12 1.03 1.10 1.16 1.26 1.36 1.41
0.15 0.16 0.18 0.18 0.18 0.18 0.20 0.20 0.17 0.14 0.12 0.08 0.06 0.08 0.16 0.22 0.26 0.40 0.46 0.45 0.48 0.45 0.47 0.51 0.52 0.49 0.49 0.54 0.55 0.73 0.95 1.18 1.29 1.35 1.36 1.36 1.29 1.21 1.12 1.18 1.30 1.45 1.57
0.03 0.05 0.08 0.11 0.13 0.15 0.15 0.15 0.13 0.11 0.09 0.07 0.05 0.05 0.07 0.08 0.14 0.21 0.30 0.40 0.47 0.50 0.51 0.55 0.52 0.47 0.52 0.51 0.49 0.52 0.62 0.78 0.96 1.09 1.18 1.23 1.26 1.34 1.40 1.40 1.44 1.52 1.60
0.01 0.01 0.02 0.03 0.04 0.05 0.05 0.06 0.05 0.04 0.04 0.04 0.04 0.04 0.04 0.04 0.05 0.08 0.18 0.34 0.48 0.49 0.48 0.62 0.68 0.61 0.60 0.64 0.66 0.60 0.54 0.53 0.68 0.86 0.99 1.04 1.11 1.21 1.42 1.46 1.48 1.51 1.44
0.00 0.00 0.01 0.01 0.02 0.02 0.02 0.02 0.02 0.02 0.02 0.03 0.05 0.07 0.05 0.02 0.02 0.03 0.09 0.24 0.39 0.43 0.44 0.55 0.81 0.85 0.74 0.70 0.75 0.85 0.77 0.61 0.60 0.65 0.80 0.91 0.96 1.12 1.43 1.65 1.62 1.42 1.36
0.00 0.00 0.00 0.01 0.01 0.01 0.01 0.01 0.01 0.01 0.03 0.03 0.04 0.06 0.05 0.04 0.04 0.04 0.08 0.19 0.29 0.33 0.38 0.50 0.66 0.81 0.75 0.71 0.71 0.78 0.82 0.72 0.66 0.67 0.64 0.71 0.83 1.00 1.26 1.52 1.64 1.59 1.43
0.00 0.00 0.00 0.00 0.01 0.02 0.01 0.01 0.01 0.02 0.03 0.03 0.03 0.03 0.03 0.02 0.04 0.05 0.07 0.13 0.17 0.17 0.24 0.41 0.56 0.55 0.52 0.59 0.70 0.81 0.90 0.74 0.64 0.73 0.72 0.74 0.76 0.95 1.27 1.46 1.58 1.58 1.46
0.00 0.00 0.01 0.01 0.01 0.02 0.03 0.02 0.02 0.02 0.03 0.03 0.04 0.04 0.04 0.03 0.04 0.05 0.08 0.10 0.13 0.13 0.19 0.32 0.40 0.37 0.37 0.45 0.57 0.70 0.83 0.69 0.70 0.84 0.89 0.87 0.94 0.99 1.11 1.24 1.44 1.56 1.46
0.00 0.01 0.01 0.01 0.01 0.02 0.03 0.02 0.02 0.02 0.03 0.05 0.07 0.08 0.08 0.08 0.06 0.06 0.08 0.10 0.12 0.14 0.20 0.26 0.29 0.26 0.28 0.33 0.38 0.49 0.60 0.68 0.76 0.89 0.96 0.93 0.89 0.96 1.02 1.05 1.15 1.27 1.27
0.00 0.01 0.01 0.01 0.01 0.01 0.02 0.02 0.02 0.02 0.03 0.05 0.08 0.10 0.11 0.12 0.09 0.06 0.07 0.08 0.12 0.15 0.18 0.22 0.23 0.25 0.29 0.30 0.31 0.39 0.54 0.73 0.90 0.90 0.84 0.81 0.83 0.89 0.90 1.01 1.09 1.13 1.16
0.00 0.00 0.00 0.01 0.01 0.02 0.01 0.01 0.02 0.02 0.03 0.04 0.06 0.08 0.09 0.12 0.08 0.07 0.10 0.12 0.13 0.16 0.18 0.19 0.19 0.24 0.28 0.28 0.34 0.46 0.62 0.81 0.90 0.81 0.76 0.66 0.67 0.82 0.88 0.89 0.94 0.96 1.02
0.00 0.00 0.00 0.00 0.01 0.03 0.02 0.01 0.01 0.01 0.02 0.03 0.05 0.07 0.06 0.06 0.07 0.08 0.10 0.11 0.12 0.12 0.16 0.23 0.27 0.34 0.39 0.46 0.56 0.65 0.67 0.71 0.77 0.69 0.73 0.67 0.63 0.70 0.74 0.75 0.77 0.74 0.75
0.00 0.00 0.00 0.00 0.01 0.02 0.03 0.02 0.02 0.02 0.02 0.02 0.02 0.04 0.06 0.04 0.05 0.07 0.08 0.10 0.09 0.11 0.20 0.28 0.36 0.44 0.50 0.58 0.64 0.65 0.65 0.67 0.70 0.66 0.65 0.64 0.59 0.59 0.61 0.62 0.66 0.69 0.72
0.00 0.00 0.01 0.01 0.01 0.02 0.02 0.04 0.05 0.04 0.02 0.02 0.02 0.03 0.04 0.04 0.05 0.06 0.08 0.09 0.09 0.12 0.18 0.29 0.48 0.54 0.52 0.58 0.63 0.61 0.53 0.47 0.48 0.50 0.49 0.48 0.46 0.47 0.51 0.53 0.54 0.61 0.63
0.00 0.00 0.01 0.01 0.01 0.02 0.02 0.03 0.04 0.05 0.06 0.06 0.04 0.04 0.04 0.05 0.06 0.06 0.08 0.10 0.10 0.11 0.14 0.21 0.34 0.38 0.41 0.47 0.48 0.45 0.39 0.33 0.33 0.33 0.34 0.35 0.36 0.39 0.40 0.43 0.44 0.44 0.50
0.00 0.01 0.01 0.01 0.02 0.02 0.03 0.03 0.03 0.03 0.04 0.05 0.06 0.05 0.05 0.07 0.07 0.07 0.08 0.09 0.10 0.12 0.14 0.19 0.24 0.27 0.28 0.28 0.28 0.29 0.29 0.30 0.30 0.30 0.31 0.33 0.34 0.35 0.34 0.34 0.37 0.40 0.41
0.01 0.02 0.02 0.02 0.02 0.02 0.03 0.04 0.04 0.04 0.05 0.05 0.06 0.07 0.09 0.10 0.10 0.10 0.09 0.10 0.11 0.12 0.13 0.15 0.17 0.17 0.18 0.19 0.20 0.24 0.26 0.29 0.30 0.31 0.30 0.32 0.34 0.35 0.33 0.32 0.32 0.33 0.35
0.01 0.02 0.03 0.03 0.03 0.03 0.04 0.05 0.05 0.06 0.07 0.07 0.07 0.09 0.10 0.11 0.13 0.14 0.14 0.14 0.14 0.14 0.15 0.14 0.15 0.16 0.17 0.19 0.23 0.24 0.25 0.29 0.31 0.31 0.33 0.34 0.35 0.36 0.36 0.35 0.35 0.34 0.35
0.02 0.02 0.03 0.03 0.04 0.04 0.05 0.05 0.06 0.06 0.07 0.08 0.09 0.11 0.12 0.13 0.14 0.16 0.16 0.15 0.15 0.16 0.17 0.17 0.17 0.17 0.20 0.22 0.25 0.27 0.28 0.31 0.33 0.34 0.35 0.37 0.38 0.39 0.38 0.38 0.39 0.40 0.39
0.02 0.02 0.03 0.04 0.05 0.05 0.06 0.06 0.07 0.07 0.09 0.09 0.11 0.12 0.14 0.15 0.16 0.16 0.16 0.15 0.16 0.17 0.18 0.19 0.19 0.19 0.20 0.23 0.26 0.29 0.31 0.32 0.37 0.41 0.44 0.42 0.41 0.41 0.40 0.39 0.39 0.42 0.42
0.02 0.02 0.03 0.04 0.05 0.06 0.06 0.06 0.07 0.08 0.09 0.10 0.11 0.13 0.14 0.16 0.17 0.18 0.17 0.16 0.17 0.17 0.18 0.20 0.21 0.20 0.20 0.23 0.26 0.29 0.32 0.34 0.38 0.44 0.50 0.51 0.47 0.44 0.43 0.41 0.39 0.40 0.44
0.02 0.02 0.03 0.04 0.05 0.07 0.07 0.08 0.09 0.09 0.10 0.12 0.13 0.14 0.14 0.14 0.15 0.17 0.18 0.18 0.17 0.18 0.19 0.21 0.23 0.24 0.23 0.24 0.27 0.31 0.36 0.38 0.38 0.42 0.48 0.53 0.52 0.50 0.48 0.46 0.43 0.42 0.43
0.01 0.02 0.04 0.05 0.06 0.07 0.08 0.09 0.10 0.11 0.13 0.13 0.14 0.15 0.16 0.16 0.16 0.17 0.18 0.18 0.17 0.17 0.17 0.20 0.22 0.23 0.24 0.25 0.28 0.33 0.38 0.37 0.37 0.40 0.45 0.50 0.54 0.54 0.53 0.53 0.51 0.49 0.48

GEFSGL_prec_meanprecacc_138.txt.gz
Total_Precipitation_Accumulation
0.93 1.03 1.06 0.85 0.61 0.49 0.47 0.45 0.44 0.47 0.52 0.60 0.56 0.53 0.58 0.62 0.59 0.68 0.79 0.91 0.99 1.04 1.06 1.10 1.17 1.24 1.33 1.38 1.49 1.57 1.60 1.54 1.29 1.14 1.00 0.90 0.95 0.99 0.99 0.94 1.00 1.02 0.93
0.80 0.79 0.65 0.47 0.37 0.34 0.30 0.25 0.22 0.22 0.22 0.29 0.32 0.33 0.40 0.51 0.53 0.60 0.64 0.65 0.71 0.76 0.81 0.88 0.93 0.99 1.10 1.18 1.25 1.34 1.47 1.50 1.39 1.24 1.10 0.99 0.91 0.95 1.11 1.15 1.13 1.07 1.05
0.44 0.42 0.39 0.32 0.30 0.26 0.21 0.19 0.17 0.16 0.16 0.20 0.23 0.26 0.29 0.39 0.50 0.56 0.58 0.55 0.54 0.52 0.53 0.58 0.67 0.75 0.89 0.98 1.03 1.11 1.27 1.31 1.38 1.28 1.21 1.13 0.98 0.92 1.05 1.07 1.17 1.34 1.24
0.25 0.23 0.22 0.23 0.23 0.23 0.23 0.23 0.18 0.14 0.16 0.15 0.14 0.16 0.24 0.35 0.43 0.51 0.55 0.52 0.49 0.49 0.50 0.50 0.53 0.55 0.63 0.74 0.87 1.05 1.22 1.35 1.39 1.32 1.27 1.23 1.14 1.05 1.12 1.18 1.28 1.38 1.42
0.15 0.16 0.18 0.18 0.19 0.18 0.20 0.20 0.17 0.14 0.12 0.08 0.06 0.08 0.16 0.22 0.26 0.40 0.46 0.45 0.48 0.45 0.47 0.51 0.53 0.49 0.49 0.54 0.55 0.73 0.95 1.18 1.30 1.36 1.36 1.37 1.30 1.23 1.15 1.22 1.31 1.46 1.58
0.03 0.05 0.08 0.11 0.13 0.15 0.15 0.15 0.13 0.11 0.09 0.07 0.05 0.05 0.07 0.08 0.14 0.21 0.30 0.40 0.47 0.50 0.51 0.55 0.53 0.48 0.53 0.51 0.49 0.52 0.62 0.78 0.96 1.09 1.18 1.23 1.27 1.35 1.45 1.45 1.45 1.53 1.60
0.01 0.01 0.02 0.03 0.04 0.05 0.05 0.06 0.05 0.04 0.04 0.04 0.04 0.04 0.04 0.04 0.05 0.08 0.18 0.34 0.48 0.49 0.48 0.62 0.68 0.62 0.61 0.65 0.66 0.60 0.54 0.53 0.69 0.87 0.99 1.04 1.11 1.22 1.46 1.50 1.49 1.51 1.44
0.00 0.00 0.01 0.01 0.02 0.02 0.02 0.02 0.02 0.02 0.02 0.03 0.05 0.07 0.05 0.02 0.02 0.03 0.09 0.24 0.39 0.43 0.44 0.56 0.81 0.86 0.75 0.70 0.75 0.85 0.77 0.61 0.61 0.66 0.81 0.91 0.96 1.13 1.46 1.67 1.62 1.42 1.37
0.00 0.00 0.00 0.01 0.01 0.01 0.01 0.01 0.01 0.01 0.03 0.03 0.04 0.06 0.05 0.04 0.04 0.04 0.08 0.19 0.29 0.33 0.38 0.50 0.67 0.82 0.75 0.71 0.71 0.78 0.82 0.72 0.66 0.68 0.65 0.72 0.84 1.01 1.27 1.52 1.65 1.59 1.43
0.00 0.00 0.00 0.00 0.01 0.02 0.01 0.01 0.01 0.02 0.03 0.03 0.03 0.03 0.03 0.02 0.04 0.05 0.07 0.13 0.17 0.17 0.24 0.41 0.56 0.55 0.52 0.59 0.70 0.81 0.90 0.74 0.65 0.74 0.73 0.75 0.77 0.95 1.27 1.47 1.59 1.58 1.47
0.00 0.00 0.01 0.01 0.01 0.02 0.03 0.02 0.02 0.02 0.03 0.03 0.04 0.04 0.04 0.03 0.04 0.05 0.08 0.10 0.13 0.13 0.19 0.33 0.40 0.37 0.37 0.45 0.57 0.70 0.83 0.69 0.71 0.86 0.90 0.87 0.94 0.99 1.11 1.24 1.44 1.56 1.46
0.00 0.01 0.01 0.01 0.01 0.02 0.03 0.02 0.02 0.02 0.03 0.05 0.07 0.08 0.08 0.08 0.06 0.06 0.08 0.11 0.12 0.14 0.20 0.26 0.29 0.26 0.28 0.33 0.38 0.49 0.60 0.68 0.77 0.91 0.98 0.94 0.90 0.96 1.02 1.05 1.15 1.27 1.27
0.01 0.01 0.01 0.01 0.01 0.01 0.02 0.02 0.02 0.02 0.03 0.05 0.08 0.10 0.11 0.12 0.09 0.06 0.07 0.09 0.12 0.15 0.18 0.22 0.24 0.26 0.29 0.30 0.32 0.39 0.54 0.73 0.90 0.91 0.84 0.81 0.83 0.89 0.90 1.01 1.09 1.13 1.16
0.00 0.00 0.00 0.01 0.01 0.02 0.01 0.01 0.02 0.02 0.03 0.04 0.06 0.08 0.09 0.12 0.08 0.07 0.10 0.12 0.13 0.16 0.18 0.19 0.20 0.25 0.29 0.29 0.34 0.46 0.62 0.82 0.90 0.81 0.76 0.66 0.67 0.82 0.88 0.89 0.94 0.96 1.02
0.01 0.00 0.00 0.00 0.01 0.03 0.02 0.01 0.01 0.01 0.02 0.03 0.05 0.07 0.06 0.06 0.07 0.08 0.10 0.11 0.12 0.12 0.17 0.24 0.28 0.34 0.39 0.46 0.56 0.65 0.67 0.71 0.77 0.69 0.73 0.67 0.63 0.70 0.74 0.75 0.77 0.74 0.75
0.01 0.00 0.00 0.00 0.01 0.02 0.03 0.02 0.02 0.02 0.02 0.02 0.02 0.04 0.06 0.04 0.05 0.07 0.08 0.10 0.09 0.11 0.20 0.28 0.36 0.44 0.50 0.58 0.64 0.65 0.65 0.67 0.70 0.66 0.65 0.64 0.59 0.59 0.61 0.62 0.66 0.69 0.72
0.01 0.01 0.01 0.01 0.01 0.02 0.02 0.04 0.05 0.04 0.02 0.02 0.02 0.03 0.04 0.04 0.05 0.06 0.08 0.09 0.09 0.12 0.18 0.29 0.48 0.54 0.52 0.58 0.63 0.61 0.53 0.47 0.48 0.50 0.49 0.48 0.46 0.47 0.51 0.53 0.54 0.61 0.63
0.02 0.02 0.02 0.02 0.02 0.02 0.02 0.03 0.04 0.05 0.06 0.06 0.04 0.04 0.04 0.05 0.06 0.06 0.08 0.10 0.10 0.11 0.14 0.21 0.34 0.38 0.41 0.47 0.48 0.45 0.39 0.33 0.33 0.34 0.34 0.35 0.36 0.39 0.40 0.43 0.44 0.44 0.50
0.02 0.03 0.03 0.02 0.02 0.02 0.03 0.03 0.03 0.03 0.04 0.05 0.06 0.05 0.05 0.07 0.07 0.07 0.08 0.09 0.10 0.12 0.14 0.19 0.24 0.27 0.28 0.28 0.28 0.29 0.29 0.30 0.30 0.30 0.31 0.33 0.34 0.35 0.34 0.34 0.37 0.40 0.41
0.01 0.02 0.04 0.04 0.03 0.03 0.03 0.04 0.04 0.04 0.05 0.05 0.06 0.07 0.09 0.10 0.10 0.10 0.09 0.10 0.11 0.12 0.13 0.15 0.17 0.17 0.18 0.19 0.21 0.24 0.26 0.29 0.31 0.31 0.30 0.32 0.34 0.35 0.33 0.32 0.32 0.33 0.35
0.01 0.02 0.03 0.04 0.04 0.04 0.04 0.05 0.05 0.06 0.07 0.07 0.07 0.09 0.10 0.11 0.13 0.14 0.14 0.14 0.14 0.14 0.15 0.14 0.15 0.16 0.17 0.19 0.23 0.24 0.25 0.29 0.31 0.32 0.33 0.34 0.36 0.36 0.36 0.36 0.35 0.35 0.35
0.02 0.02 0.03 0.03 0.04 0.05 0.05 0.05 0.06 0.06 0.07 0.08 0.09 0.11 0.12 0.13 0.14 0.16 0.16 0.15 0.15 0.16 0.17 0.17 0.17 0.18 0.20 0.22 0.25 0.27 0.29 0.31 0.33 0.34 0.35 0.37 0.39 0.39 0.38 0.38 0.39 0.40 0.40
0.02 0.02 0.03 0.04 0.05 0.06 0.06 0.06 0.07 0.08 0.09 0.09 0.11 0.12 0.14 0.15 0.16 0.16 0.16 0.15 0.16 0.17 0.18 0.19 0.19 0.19 0.20 0.23 0.26 0.29 0.31 0.32 0.37 0.41 0.44 0.43 0.42 0.41 0.40 0.40 0.40 0.42 0.42
0.02 0.02 0.03 0.04 0.05 0.06 0.07 0.06 0.07 0.08 0.09 0.11 0.12 0.13 0.14 0.16 0.17 0.18 0.17 0.16 0.17 0.17 0.18 0.20 0.21 0.20 0.20 0.23 0.26 0.30 0.32 0.34 0.38 0.44 0.50 0.51 0.47 0.44 0.43 0.41 0.39 0.40 0.44
0.02 0.02 0.03 0.04 0.05 0.07 0.07 0.08 0.09 0.09 0.10 0.12 0.13 0.14 0.14 0.14 0.15 0.17 0.18 0.18 0.17 0.18 0.19 0.21 0.23 0.24 0.23 0.24 0.27 0.31 0.36 0.38 0.38 0.42 0.48 0.54 0.52 0.50 0.48 0.46 0.43 0.42 0.44
0.01 0.02 0.04 0.05 0.06 0.07 0.08 0.09 0.10 0.11 0.13 0.13 0.14 0.15 0.16 0.16 0.16 0.17 0.18 0.18 0.17 0.17 0.17 0.20 0.22 0.23 0.24 0.25 0.28 0.33 0.38 0.37 0.38 0.41 0.45 0.51 0.55 0.54 0.54 0.54 0.51 0.50 0.48

GEFSGL_prec_meanprecacc_144.txt.gz
Total_Precipitation_Accumulation
0.93 1.03 1.06 0.85 0.61 0.49 0.47 0.45 0.44 0.47 0.52 0.60 0.56 0.53 0.58 0.62 0.59 0.68 0.79 0.91 0.99 1.04 1.06 1.10 1.18 1.24 1.33 1.38 1.50 1.57 1.60 1.54 1.30 1.16 1.03 0.94 0.98 1.01 1.01 0.97 1.02 1.03 0.94
0.80 0.79 0.65 0.47 0.37 0.34 0.30 0.25 0.22 0.22 0.22 0.29 0.32 0.33 0.40 0.51 0.53 0.60 0.64 0.66 0.72 0.76 0.81 0.88 0.93 0.99 1.10 1.18 1.25 1.34 1.47 1.50 1.40 1.25 1.13 1.02 0.93 0.96 1.12 1.17 1.15 1.09 1.07
0.44 0.42 0.39 0.32 0.30 0.26 0.21 0.19 0.17 0.16 0.16 0.20 0.23 0.26 0.30 0.39 0.51 0.57 0.58 0.55 0.54 0.52 0.53 0.59 0.67 0.75 0.90 0.99 1.03 1.11 1.27 1.31 1.39 1.29 1.22 1.15 1.00 0.94 1.07 1.09 1.19 1.35 1.25
0.25 0.23 0.22 0.23 0.23 0.23 0.23 0.23 0.18 0.14 0.16 0.15 0.14 0.16 0.24 0.35 0.43 0.51 0.55 0.52 0.49 0.49 0.50 0.50 0.53 0.55 0.63 0.74 0.87 1.05 1.22 1.35 1.40 1.35 1.30 1.25 1.17 1.07 1.13 1.22 1.31 1.39 1.43
0.15 0.16 0.18 0.18 0.19 0.18 0.20 0.20 0.17 0.14 0.12 0.08 0.06 0.08 0.16 0.22 0.26 0.40 0.46 0.45 0.48 0.45 0.47 0.51 0.53 0.49 0.49 0.54 0.55 0.73 0.95 1.19 1.31 1.37 1.37 1.38 1.31 1.24 1.17 1.26 1.33 1.47 1.58
0.03 0.05 0.08 0.11 0.13 0.15 0.15 0.15 0.13 0.11 0.09 0.07 0.05 0.05 0.07 0.08 0.14 0.21 0.30 0.40 0.47 0.50 0.51 0.55 0.53 0.49 0.53 0.51 0.49 0.52 0.62 0.78 0.97 1.10 1.19 1.24 1.27 1.36 1.47 1.47 1.45 1.53 1.61
0.01 0.01 0.02 0.03 0.04 0.05 0.05 0.06 0.05 0.04 0.04 0.04 0.04 0.04 0.04 0.04 0.05 0.08 0.18 0.34 0.48 0.49 0.48 0.62 0.68 0.63 0.62 0.65 0.66 0.60 0.54 0.53 0.69 0.87 0.99 1.04 1.12 1.23 1.47 1.51 1.49 1.52 1.45
0.01 0.01 0.01 0.01 0.02 0.02 0.02 0.02 0.02 0.02 0.02 0.03 0.05 0.07 0.05 0.02 0.02 0.04 0.09 0.24 0.39 0.43 0.44 0.56 0.81 0.86 0.75 0.71 0.75 0.85 0.77 0.61 0.61 0.66 0.81 0.92 0.97 1.13 1.47 1.69 1.63 1.42 1.37
0.01 0.01 0.01 0.01 0.01 0.02 0.01 0.01 0.01 0.01 0.03 0.03 0.04 0.06 0.05 0.04 0.04 0.04 0.08 0.19 0.29 0.33 0.38 0.50 0.67 0.82 0.75 0.71 0.71 0.78 0.82 0.72 0.66 0.68 0.65 0.72 0.85 1.02 1.28 1.55 1.66 1.59 1.43
0.01 0.02 0.02 0.02 0.02 0.02 0.02 0.02 0.01 0.02 0.03 0.03 0.03 0.03 0.03 0.02 0.04 0.05 0.07 0.13 0.17 0.17 0.24 0.41 0.56 0.55 0.52 0.59 0.70 0.81 0.90 0.74 0.65 0.74 0.73 0.75 0.78 0.96 1.28 1.49 1.60 1.58 1.47
0.01 0.02 0.02 0.02 0.02 0.04 0.04 0.03 0.02 0.02 0.03 0.03 0.04 0.04 0.04 0.03 0.04 0.06 0.08 0.10 0.13 0.13 0.19 0.33 0.40 0.37 0.37 0.45 0.57 0.70 0.83 0.69 0.71 0.86 0.90 0.88 0.95 1.00 1.12 1.27 1.46 1.57 1.47
0.01 0.01 0.01 0.02 0.02 0.03 0.05 0.03 0.03 0.03 0.03 0.05 0.07 0.08 0.08 0.08 0.06 0.06 0.08 0.11 0.13 0.14 0.20 0.26 0.29 0.26 0.28 0.33 0.38 0.49 0.60 0.68 0.77 0.91 0.98 0.94 0.90 0.97 1.02 1.07 1.18 1.29 1.27
0.01 0.01 0.01 0.02 0.02 0.03 0.02 0.02 0.02 0.03 0.04 0.06 0.08 0.10 0.11 0.12 0.09 0.06 0.07 0.09 0.12 0.15 0.18 0.22 0.24 0.26 0.29 0.30 0.32 0.39 0.54 0.73 0.91 0.92 0.84 0.81 0.84 0.90 0.91 1.02 1.10 1.14 1.17
0.01 0.01 0.01 0.01 0.02 0.03 0.02 0.02 0.02 0.02 0.03 0.05 0.07 0.08 0.09 0.12 0.08 0.07 0.10 0.12 0.13 0.16 0.18 0.19 0.20 0.25 0.29 0.29 0.34 0.46 0.62 0.82 0.90 0.82 0.76 0.66 0.68 0.82 0.88 0.90 0.94 0.96 1.02
0.02 0.02 0.01 0.01 0.02 0.03 0.02 0.01 0.02 0.02 0.02 0.04 0.05 0.07 0.06 0.06 0.07 0.08 0.10 0.11 0.12 0.12 0.17 0.24 0.28 0.34 0.39 0.46 0.57 0.65 0.67 0.71 0.77 0.69 0.73 0.67 0.63 0.70 0.74 0.75 0.77 0.74 0.75
0.02 0.01 0.01 0.01 0.01 0.02 0.03 0.03 0.02 0.02 0.02 0.02 0.03 0.04 0.06 0.04 0.05 0.07 0.08 0.10 0.09 0.11 0.20 0.28 0.36 0.44 0.50 0.58 0.64 0.65 0.65 0.67 0.70 0.66 0.65 0.64 0.59 0.59 0.61 0.62 0.66 0.69 0.72
0.02 0.02 0.02 0.02 0.02 0.02 0.03 0.05 0.05 0.04 0.03 0.02 0.02 0.03 0.04 0.04 0.05 0.06 0.08 0.09 0.09 0.12 0.18 0.29 0.48 0.54 0.52 0.58 0.63 0.61 0.53 0.47 0.48 0.50 0.49 0.48 0.46 0.47 0.51 0.53 0.54 0.61 0.63
0.03 0.02 0.02 0.03 0.03 0.03 0.03 0.03 0.04 0.05 0.07 0.06 0.04 0.04 0.05 0.05 0.06 0.06 0.08 0.10 0.10 0.11 0.14 0.21 0.34 0.38 0.41 0.47 0.48 0.45 0.39 0.33 0.33 0.34 0.34 0.35 0.36 0.39 0.40 0.43 0.44 0.44 0.50
0.02 0.04 0.04 0.03 0.03 0.03 0.04 0.04 0.04 0.04 0.04 0.06 0.07 0.06 0.06 0.07 0.07 0.07 0.08 0.09 0.10 0.12 0.14 0.19 0.24 0.27 0.28 0.28 0.28 0.29 0.29 0.30 0.30 0.30 0.31 0.33 0.34 0.35 0.34 0.34 0.37 0.40 0.41
0.02 0.03 0.05 0.05 0.04 0.04 0.04 0.05 0.06 0.06 0.06 0.06 0.06 0.08 0.09 0.10 0.10 0.10 0.09 0.10 0.11 0.12 0.13 0.15 0.17 0.17 0.18 0.19 0.21 0.24 0.26 0.29 0.31 0.31 0.30 0.32 0.34 0.35 0.33 0.32 0.32 0.33 0.35
0.02 0.03 0.04 0.04 0.05 0.05 0.05 0.06 0.06 0.07 0.08 0.08 0.08 0.09 0.11 0.12 0.13 0.14 0.14 0.14 0.14 0.14 0.15 0.14 0.15 0.16 0.17 0.19 0.23 0.24 0.25 0.29 0.31 0.32 0.33 0.34 0.36 0.36 0.36 0.36 0.35 0.35 0.35
0.02 0.02 0.03 0.04 0.05 0.06 0.06 0.06 0.07 0.07 0.08 0.09 0.10 0.11 0.13 0.14 0.15 0.16 0.16 0.15 0.15 0.16 0.17 0.17 0.17 0.18 0.20 0.22 0.25 0.27 0.29 0.31 0.33 0.34 0.35 0.37 0.39 0.39 0.38 0.38 0.39 0.40 0.40
0.02 0.03 0.03 0.04 0.05 0.06 0.07 0.07 0.08 0.08 0.09 0.10 0.11 0.13 0.15 0.16 0.16 0.16 0.16 0.15 0.16 0.17 0.18 0.19 0.19 0.19 0.20 0.23 0.26 0.29 0.31 0.32 0.37 0.41 0.44 0.43 0.42 0.42 0.41 0.40 0.40 0.42 0.42
0.02 0.02 0.03 0.04 0.05 0.06 0.07 0.07 0.08 0.09 0.10 0.12 0.13 0.14 0.15 0.17 0.18 0.18 0.18 0.17 0.17 0.17 0.18 0.20 0.21 0.20 0.20 0.23 0.26 0.30 0.32 0.34 0.38 0.44 0.50 0.52 0.48 0.44 0.44 0.42 0.40 0.41 0.44
0.02 0.02 0.03 0.04 0.05 0.07 0.08 0.09 0.09 0.10 0.11 0.13 0.14 0.16 0.16 0.16 0.17 0.18 0.19 0.18 0.18 0.18 0.19 0.21 0.23 0.24 0.23 0.25 0.27 0.31 0.36 0.38 0.38 0.42 0.48 0.54 0.53 0.51 0.49 0.47 0.44 0.42 0.44
0.02 0.02 0.04 0.05 0.06 0.07 0.08 0.10 0.11 0.12 0.13 0.14 0.15 0.16 0.18 0.18 0.18 0.19 0.19 0.19 0.18 0.18 0.18 0.21 0.23 0.24 0.25 0.26 0.28 0.33 0.38 0.37 0.38 0.41 0.46 0.51 0.55 0.55 0.54 0.55 0.52 0.51 0.49

GEFSGL_prec_meanprecacc_150.txt.gz
Total_Precipitation_Accumulation
0.93 1.03 1.06 0.85 0.61 0.49 0.47 0.45 0.44 0.47 0.52 0.61 0.56 0.53 0.58 0.62 0.60 0.68 0.79 0.91 1.00 1.04 1.06 1.11 1.18 1.24 1.33 1.39 1.50 1.57 1.61 1.56 1.32 1.18 1.05 0.98 1.01 1.02 1.02 0.97 1.03 1.06 0.95
0.80 0.79 0.65 0.47 0.37 0.34 0.30 0.25 0.22 0.22 0.22 0.29 0.32 0.33 0.40 0.51 0.53 0.60 0.64 0.66 0.72 0.76 0.82 0.88 0.93 0.99 1.10 1.18 1.25 1.35 1.48 1.51 1.41 1.26 1.14 1.04 0.94 0.97 1.12 1.17 1.16 1.10 1.08
0.44 0.42 0.39 0.32 0.30 0.26 0.21 0.19 0.17 0.16 0.16 0.20 0.23 0.26 0.30 0.39 0.51 0.57 0.59 0.55 0.54 0.52 0.53 0.59 0.67 0.75 0.90 0.99 1.03 1.12 1.27 1.32 1.40 1.30 1.23 1.16 1.01 0.94 1.10 1.13 1.21 1.36 1.26
0.25 0.23 0.22 0.23 0.23 0.23 0.23 0.24 0.18 0.14 0.16 0.15 0.14 0.16 0.24 0.35 0.43 0.51 0.55 0.52 0.49 0.49 0.50 0.50 0.53 0.55 0.64 0.74 0.87 1.06 1.23 1.36 1.41 1.35 1.30 1.26 1.18 1.08 1.15 1.25 1.33 1.41 1.45
0.16 0.16 0.18 0.18 0.19 0.18 0.20 0.20 0.17 0.14 0.12 0.08 0.06 0.08 0.16 0.22 0.26 0.40 0.46 0.45 0.48 0.45 0.47 0.51 0.53 0.49 0.50 0.54 0.55 0.73 0.96 1.19 1.31 1.38 1.38 1.39 1.32 1.26 1.19 1.29 1.36 1.50 1.60
0.03 0.05 0.08 0.11 0.13 0.15 0.15 0.15 0.13 0.11 0.09 0.07 0.05 0.05 0.07 0.08 0.14 0.21 0.30 0.40 0.47 0.50 0.51 0.55 0.53 0.49 0.53 0.51 0.49 0.52 0.63 0.78 0.97 1.10 1.19 1.24 1.28 1.37 1.48 1.48 1.46 1.54 1.62
0.01 0.01 0.02 0.03 0.04 0.05 0.05 0.06 0.05 0.04 0.04 0.04 0.04 0.04 0.04 0.04 0.05 0.08 0.18 0.34 0.48 0.49 0.48 0.62 0.69 0.63 0.62 0.65 0.66 0.60 0.54 0.53 0.69 0.87 0.99 1.04 1.12 1.23 1.48 1.52 1.50 1.53 1.45
0.01 0.01 0.01 0.02 0.02 0.02 0.02 0.02 0.02 0.02 0.02 0.03 0.05 0.07 0.05 0.02 0.03 0.04 0.09 0.24 0.39 0.43 0.44 0.56 0.82 0.86 0.75 0.71 0.75 0.85 0.77 0.61 0.61 0.66 0.81 0.92 0.97 1.14 1.47 1.69 1.63 1.43 1.37
0.01 0.02 0.02 0.01 0.02 0.02 0.01 0.01 0.01 0.02 0.03 0.03 0.04 0.06 0.05 0.04 0.04 0.05 0.09 0.19 0.29 0.33 0.38 0.50 0.67 0.82 0.75 0.71 0.71 0.78 0.82 0.73 0.66 0.68 0.65 0.72 0.85 1.02 1.28 1.55 1.66 1.59 1.44
0.01 0.02 0.03 0.02 0.02 0.02 0.02 0.02 0.02 0.03 0.03 0.03 0.03 0.03 0.03 0.03 0.04 0.06 0.07 0.13 0.17 0.17 0.24 0.41 0.56 0.55 0.52 0.59 0.70 0.81 0.90 0.74 0.65 0.74 0.73 0.75 0.78 0.96 1.28 1.49 1.61 1.58 1.47
0.02 0.03 0.03 0.02 0.02 0.04 0.05 0.04 0.03 0.03 0.03 0.04 0.04 0.04 0.04 0.04 0.04 0.06 0.08 0.10 0.13 0.13 0.19 0.33 0.40 0.37 0.37 0.45 0.57 0.70 0.83 0.69 0.71 0.86 0.90 0.88 0.95 1.00 1.12 1.27 1.47 1.57 1.47
0.01 0.02 0.03 0.02 0.02 0.04 0.05 0.04 0.04 0.04 0.04 0.05 0.08 0.08 0.09 0.09 0.06 0.06 0.08 0.11 0.13 0.14 0.20 0.26 0.29 0.26 0.28 0.33 0.38 0.49 0.60 0.68 0.77 0.91 0.98 0.94 0.91 0.97 1.02 1.07 1.18 1.29 1.28
0.01 0.01 0.02 0.02 0.03 0.03 0.03 0.03 0.03 0.04 0.05 0.06 0.09 0.11 0.11 0.12 0.09 0.07 0.07 0.09 0.12 0.15 0.18 0.22 0.24 0.26 0.29 0.30 0.32 0.39 0.54 0.73 0.91 0.92 0.84 0.81 0.85 0.90 0.91 1.03 1.10 1.15 1.17
0.02 0.01 0.01 0.02 0.03 0.04 0.03 0.02 0.02 0.03 0.04 0.06 0.08 0.09 0.10 0.12 0.09 0.07 0.10 0.12 0.13 0.16 0.18 0.19 0.20 0.26 0.29 0.29 0.34 0.46 0.62 0.82 0.90 0.82 0.76 0.67 0.69 0.83 0.89 0.91 0.95 0.97 1.03
0.02 0.02 0.02 0.01 0.02 0.03 0.02 0.02 0.02 0.02 0.03 0.04 0.06 0.08 0.07 0.07 0.07 0.08 0.10 0.12 0.12 0.12 0.17 0.24 0.28 0.34 0.39 0.46 0.57 0.65 0.68 0.72 0.77 0.69 0.73 0.67 0.63 0.71 0.75 0.76 0.78 0.75 0.76
0.02 0.03 0.02 0.01 0.02 0.02 0.03 0.03 0.02 0.02 0.02 0.02 0.03 0.05 0.06 0.05 0.06 0.07 0.09 0.11 0.10 0.12 0.20 0.28 0.36 0.44 0.51 0.59 0.65 0.66 0.66 0.67 0.70 0.67 0.65 0.65 0.59 0.59 0.61 0.63 0.67 0.69 0.73
0.03 0.02 0.02 0.02 0.02 0.02 0.03 0.05 0.05 0.04 0.03 0.02 0.02 0.03 0.04 0.05 0.05 0.07 0.08 0.09 0.10 0.12 0.18 0.29 0.48 0.54 0.52 0.58 0.63 0.61 0.53 0.47 0.48 0.51 0.50 0.48 0.46 0.47 0.51 0.53 0.54 0.61 0.63
0.04 0.04 0.03 0.03 0.03 0.03 0.03 0.04 0.04 0.06 0.07 0.06 0.05 0.04 0.05 0.06 0.06 0.07 0.08 0.10 0.11 0.11 0.14 0.21 0.34 0.38 0.41 0.47 0.48 0.45 0.39 0.33 0.33 0.34 0.34 0.35 0.36 0.39 0.40 0.43 0.44 0.44 0.50
0.03 0.04 0.04 0.04 0.04 0.03 0.04 0.05 0.04 0.04 0.05 0.06 0.07 0.06 0.06 0.07 0.08 0.08 0.09 0.10 0.11 0.12 0.15 0.19 0.24 0.27 0.28 0.28 0.28 0.29 0.29 0.30 0.30 0.30 0.31 0.33 0.34 0.35 0.34 0.34 0.37 0.40 0.41
0.02 0.03 0.05 0.05 0.05 0.05 0.05 0.06 0.06 0.06 0.06 0.07 0.07 0.08 0.10 0.11 0.11 0.11 0.10 0.10 0.11 0.12 0.13 0.15 0.17 0.17 0.18 0.19 0.21 0.24 0.26 0.29 0.31 0.31 0.30 0.32 0.34 0.35 0.33 0.32 0.32 0.33 0.36
0.02 0.03 0.04 0.05 0.06 0.06 0.06 0.07 0.08 0.08 0.09 0.09 0.09 0.10 0.12 0.13 0.14 0.15 0.15 0.14 0.14 0.15 0.15 0.14 0.15 0.16 0.17 0.20 0.23 0.25 0.25 0.29 0.31 0.32 0.33 0.34 0.36 0.36 0.36 0.36 0.35 0.35 0.36
0.02 0.02 0.03 0.04 0.05 0.07 0.07 0.07 0.08 0.08 0.09 0.10 0.11 0.12 0.13 0.14 0.15 0.17 0.17 0.16 0.16 0.16 0.17 0.17 0.17 0.18 0.21 0.23 0.26 0.28 0.29 0.31 0.33 0.34 0.35 0.37 0.39 0.39 0.38 0.39 0.40 0.41 0.40
0.02 0.03 0.03 0.04 0.05 0.06 0.07 0.08 0.09 0.09 0.10 0.11 0.12 0.13 0.15 0.16 0.17 0.17 0.17 0.16 0.16 0.17 0.19 0.19 0.19 0.19 0.21 0.24 0.27 0.30 0.32 0.33 0.37 0.42 0.44 0.43 0.42 0.42 0.41 0.41 0.41 0.43 0.43
0.03 0.03 0.03 0.04 0.05 0.06 0.07 0.07 0.08 0.10 0.11 0.12 0.13 0.15 0.16 0.17 0.18 0.19 0.18 0.17 0.17 0.18 0.19 0.21 0.22 0.21 0.22 0.25 0.28 0.32 0.34 0.36 0.40 0.46 0.51 0.53 0.49 0.45 0.45 0.42 0.40 0.41 0.45
0.02 0.03 0.04 0.04 0.06 0.07 0.08 0.09 0.09 0.10 0.12 0.13 0.15 0.16 0.16 0.16 0.17 0.19 0.19 0.19 0.18 0.19 0.20 0.23 0.25 0.26 0.26 0.27 0.30 0.34 0.40 0.41 0.41 0.44 0.50 0.55 0.54 0.51 0.49 0.47 0.45 0.43 0.45
0.02 0.02 0.04 0.05 0.06 0.07 0.09 0.10 0.11 0.12 0.14 0.15 0.16 0.17 0.19 0.19 0.19 0.20 0.20 0.20 0.19 0.19 0.20 0.22 0.25 0.26 0.27 0.28 0.30 0.35 0.40 0.39 0.39 0.42 0.46 0.52 0.56 0.55 0.55 0.55 0.53 0.52 0.50

GEFSGL_prec_meanprecacc_156.txt.gz
Total_Precipitation_Accumulation
0.93 1.03 1.06 0.85 0.61 0.49 0.48 0.46 0.44 0.47 0.52 0.61 0.56 0.53 0.58 0.62 0.60 0.69 0.79 0.91 1.00 1.05 1.07 1.12 1.18 1.25 1.34 1.40 1.52 1.59 1.62 1.58 1.36 1.20 1.07 1.03 1.06 1.05 1.04 1.00 1.05 1.08 0.98
0.80 0.79 0.65 0.47 0.38 0.34 0.31 0.25 0.22 0.22 0.22 0.29 0.32 0.33 0.40 0.51 0.54 0.61 0.65 0.67 0.73 0.78 0.83 0.90 0.94 1.00 1.11 1.19 1.27 1.36 1.49 1.53 1.44 1.28 1.16 1.07 0.98 1.00 1.15 1.20 1.19 1.12 1.10
0.44 0.42 0.39 0.32 0.30 0.26 0.21 0.19 0.17 0.16 0.16 0.20 0.23 0.26 0.30 0.39 0.51 0.57 0.59 0.55 0.55 0.53 0.54 0.61 0.69 0.77 0.91 1.00 1.05 1.13 1.29 1.33 1.42 1.32 1.25 1.18 1.04 0.97 1.13 1.16 1.24 1.40 1.29
0.26 0.23 0.22 0.23 0.23 0.23 0.23 0.24 0.18 0.14 0.16 0.15 0.14 0.16 0.24 0.35 0.43 0.51 0.55 0.52 0.49 0.49 0.50 0.51 0.54 0.56 0.65 0.75 0.88 1.07 1.24 1.37 1.43 1.37 1.32 1.28 1.21 1.10 1.18 1.28 1.36 1.46 1.48
0.16 0.16 0.18 0.18 0.19 0.18 0.20 0.20 0.17 0.14 0.12 0.08 0.06 0.08 0.16 0.22 0.26 0.40 0.46 0.46 0.48 0.46 0.47 0.52 0.53 0.50 0.50 0.54 0.55 0.74 0.96 1.20 1.32 1.39 1.39 1.41 1.35 1.29 1.22 1.33 1.40 1.55 1.65
0.03 0.05 0.08 0.11 0.13 0.15 0.15 0.15 0.13 0.11 0.09 0.07 0.05 0.05 0.08 0.08 0.14 0.21 0.30 0.40 0.47 0.50 0.51 0.56 0.54 0.49 0.53 0.52 0.49 0.53 0.63 0.78 0.97 1.11 1.20 1.25 1.29 1.39 1.50 1.50 1.48 1.56 1.64
0.01 0.02 0.02 0.03 0.04 0.05 0.05 0.06 0.05 0.04 0.04 0.04 0.04 0.05 0.04 0.04 0.05 0.08 0.19 0.34 0.48 0.49 0.48 0.63 0.69 0.63 0.62 0.65 0.66 0.60 0.54 0.54 0.69 0.87 0.99 1.05 1.13 1.24 1.48 1.52 1.51 1.54 1.47
0.01 0.01 0.01 0.02 0.02 0.02 0.02 0.02 0.02 0.02 0.02 0.03 0.05 0.07 0.05 0.02 0.03 0.04 0.09 0.24 0.39 0.43 0.44 0.57 0.82 0.86 0.75 0.71 0.75 0.85 0.77 0.61 0.61 0.66 0.81 0.92 0.97 1.14 1.48 1.70 1.64 1.44 1.38
0.02 0.02 0.02 0.02 0.02 0.02 0.02 0.02 0.01 0.02 0.03 0.03 0.04 0.06 0.05 0.04 0.04 0.05 0.09 0.19 0.29 0.34 0.38 0.50 0.67 0.82 0.75 0.71 0.71 0.79 0.83 0.73 0.66 0.68 0.65 0.73 0.85 1.02 1.28 1.55 1.67 1.60 1.44
0.02 0.03 0.03 0.02 0.02 0.03 0.03 0.03 0.03 0.03 0.04 0.03 0.03 0.03 0.03 0.03 0.05 0.06 0.08 0.13 0.17 0.17 0.25 0.41 0.56 0.55 0.52 0.59 0.70 0.81 0.90 0.75 0.65 0.74 0.73 0.75 0.78 0.96 1.28 1.50 1.62 1.59 1.47
0.02 0.04 0.04 0.03 0.03 0.05 0.05 0.04 0.04 0.04 0.04 0.04 0.05 0.05 0.05 0.04 0.05 0.07 0.09 0.10 0.13 0.13 0.19 0.33 0.40 0.37 0.37 0.46 0.57 0.70 0.83 0.69 0.71 0.86 0.90 0.88 0.95 1.00 1.12 1.27 1.47 1.58 1.48
0.02 0.03 0.04 0.04 0.04 0.05 0.06 0.05 0.05 0.05 0.05 0.06 0.09 0.09 0.09 0.09 0.07 0.07 0.09 0.11 0.13 0.14 0.20 0.26 0.29 0.26 0.28 0.33 0.38 0.49 0.60 0.68 0.77 0.91 0.98 0.94 0.91 0.97 1.02 1.07 1.18 1.29 1.28
0.02 0.03 0.03 0.05 0.05 0.05 0.05 0.04 0.05 0.05 0.06 0.07 0.10 0.12 0.13 0.13 0.10 0.08 0.08 0.09 0.13 0.16 0.18 0.22 0.24 0.26 0.29 0.30 0.32 0.39 0.54 0.73 0.91 0.92 0.84 0.81 0.85 0.90 0.91 1.03 1.10 1.15 1.17
0.03 0.03 0.03 0.03 0.04 0.05 0.04 0.03 0.03 0.04 0.04 0.06 0.08 0.09 0.10 0.13 0.09 0.08 0.10 0.12 0.14 0.16 0.19 0.20 0.20 0.26 0.29 0.29 0.34 0.46 0.63 0.82 0.90 0.82 0.76 0.67 0.69 0.83 0.89 0.91 0.95 0.97 1.03
0.05 0.04 0.03 0.02 0.03 0.04 0.03 0.02 0.02 0.02 0.03 0.04 0.07 0.08 0.07 0.07 0.08 0.09 0.11 0.12 0.12 0.13 0.17 0.24 0.28 0.35 0.40 0.47 0.57 0.66 0.68 0.72 0.77 0.69 0.73 0.68 0.64 0.71 0.75 0.76 0.78 0.75 0.76
0.06 0.04 0.03 0.02 0.02 0.02 0.04 0.03 0.03 0.03 0.03 0.03 0.03 0.05 0.07 0.05 0.06 0.07 0.09 0.11 0.10 0.12 0.21 0.29 0.37 0.45 0.51 0.59 0.65 0.66 0.66 0.67 0.70 0.67 0.65 0.65 0.59 0.59 0.61 0.63 0.67 0.70 0.73
0.04 0.03 0.03 0.03 0.02 0.03 0.03 0.06 0.06 0.04 0.03 0.03 0.03 0.03 0.05 0.05 0.05 0.07 0.08 0.09 0.10 0.13 0.19 0.29 0.49 0.54 0.53 0.59 0.63 0.62 0.53 0.48 0.49 0.51 0.50 0.48 0.46 0.47 0.51 0.53 0.54 0.61 0.63
0.05 0.06 0.05 0.04 0.03 0.03 0.03 0.04 0.05 0.06 0.07 0.07 0.05 0.05 0.06 0.06 0.07 0.07 0.08 0.10 0.11 0.11 0.14 0.21 0.34 0.38 0.41 0.47 0.48 0.46 0.39 0.33 0.33 0.34 0.34 0.35 0.37 0.39 0.40 0.43 0.44 0.44 0.50
0.03 0.05 0.06 0.06 0.06 0.05 0.05 0.05 0.05 0.05 0.05 0.06 0.07 0.06 0.07 0.08 0.08 0.08 0.09 0.10 0.11 0.12 0.15 0.19 0.24 0.27 0.28 0.28 0.29 0.29 0.29 0.31 0.30 0.30 0.31 0.33 0.34 0.35 0.34 0.34 0.37 0.41 0.41
0.03 0.04 0.05 0.06 0.07 0.08 0.08 0.07 0.07 0.07 0.07 0.07 0.07 0.09 0.11 0.11 0.11 0.11 0.11 0.11 0.12 0.13 0.14 0.15 0.17 0.17 0.18 0.20 0.21 0.25 0.27 0.30 0.32 0.32 0.31 0.32 0.34 0.35 0.34 0.32 0.32 0.33 0.36
0.02 0.03 0.04 0.05 0.06 0.07 0.09 0.09 0.10 0.10 0.10 0.10 0.10 0.11 0.13 0.13 0.14 0.15 0.15 0.15 0.15 0.15 0.15 0.15 0.15 0.16 0.17 0.20 0.23 0.25 0.26 0.30 0.32 0.32 0.33 0.35 0.36 0.37 0.37 0.36 0.35 0.35 0.36
0.02 0.02 0.03 0.04 0.06 0.07 0.08 0.08 0.08 0.09 0.10 0.11 0.12 0.13 0.15 0.15 0.16 0.17 0.17 0.16 0.16 0.17 0.17 0.18 0.18 0.18 0.21 0.23 0.26 0.28 0.29 0.31 0.34 0.35 0.36 0.38 0.40 0.40 0.39 0.40 0.41 0.42 0.41
0.02 0.03 0.03 0.04 0.05 0.07 0.07 0.08 0.09 0.10 0.11 0.12 0.13 0.14 0.16 0.17 0.17 0.17 0.17 0.16 0.16 0.18 0.19 0.20 0.20 0.20 0.22 0.25 0.28 0.31 0.32 0.34 0.38 0.43 0.46 0.45 0.44 0.44 0.43 0.42 0.42 0.45 0.45
0.03 0.03 0.03 0.04 0.05 0.06 0.07 0.07 0.09 0.10 0.11 0.12 0.13 0.15 0.16 0.17 0.18 0.19 0.19 0.17 0.18 0.18 0.19 0.21 0.23 0.22 0.23 0.25 0.29 0.33 0.35 0.37 0.41 0.47 0.53 0.55 0.51 0.47 0.47 0.44 0.43 0.43 0.47
0.03 0.03 0.04 0.05 0.06 0.07 0.08 0.09 0.10 0.10 0.12 0.13 0.15 0.16 0.16 0.16 0.17 0.19 0.20 0.20 0.19 0.19 0.20 0.23 0.25 0.26 0.26 0.27 0.31 0.34 0.41 0.42 0.42 0.45 0.52 0.57 0.56 0.53 0.51 0.49 0.47 0.45 0.47
0.02 0.03 0.04 0.05 0.06 0.07 0.09 0.10 0.11 0.12 0.14 0.15 0.16 0.18 0.19 0.19 0.19 0.20 0.21 0.21 0.20 0.19 0.20 0.23 0.25 0.26 0.27 0.28 0.30 0.36 0.41 0.40 0.41 0.44 0.48 0.54 0.58 0.57 0.57 0.58 0.56 0.54 0.53

GEFSGL_prec_meanprecacc_162.txt.gz
Total_Precipitation_Accumulation
0.94 1.03 1.06 0.85 0.61 0.49 0.48 0.46 0.45 0.47 0.53 0.61 0.56 0.53 0.58 0.63 0.61 0.69 0.79 0.91 1.01 1.07 1.09 1.14 1.20 1.26 1.35 1.40 1.52 1.59 1.63 1.59 1.37 1.21 1.08 1.06 1.09 1.08 1.09 1.02 1.07 1.09 0.98
0.81 0.79 0.65 0.47 0.38 0.35 0.31 0.26 0.22 0.22 0.22 0.29 0.32 0.33 0.40 0.52 0.55 0.61 0.65 0.67 0.74 0.79 0.85 0.92 0.96 1.01 1.11 1.19 1.28 1.37 1.50 1.54 1.45 1.29 1.18 1.11 1.02 1.03 1.18 1.23 1.21 1.13 1.10
0.44 0.42 0.39 0.32 0.30 0.26 0.22 0.19 0.17 0.17 0.16 0.20 0.23 0.26 0.30 0.40 0.51 0.57 0.59 0.56 0.55 0.53 0.55 0.62 0.70 0.78 0.92 1.00 1.06 1.15 1.32 1.36 1.43 1.33 1.27 1.21 1.07 1.01 1.17 1.19 1.27 1.42 1.29
0.26 0.23 0.23 0.23 0.23 0.23 0.23 0.24 0.18 0.15 0.16 0.15 0.14 0.16 0.24 0.35 0.43 0.51 0.55 0.53 0.49 0.49 0.50 0.51 0.55 0.57 0.65 0.77 0.90 1.09 1.27 1.39 1.44 1.38 1.33 1.29 1.23 1.15 1.22 1.30 1.38 1.48 1.50
0.17 0.16 0.18 0.18 0.19 0.18 0.20 0.20 0.17 0.14 0.12 0.08 0.06 0.08 0.16 0.22 0.27 0.40 0.46 0.46 0.48 0.46 0.47 0.52 0.54 0.50 0.50 0.55 0.56 0.75 0.97 1.21 1.33 1.39 1.40 1.41 1.36 1.31 1.25 1.35 1.42 1.57 1.68
0.05 0.06 0.08 0.11 0.13 0.15 0.15 0.15 0.13 0.11 0.09 0.07 0.05 0.06 0.08 0.08 0.14 0.22 0.30 0.40 0.47 0.50 0.51 0.56 0.54 0.49 0.54 0.52 0.50 0.53 0.64 0.79 0.97 1.11 1.20 1.25 1.30 1.40 1.51 1.52 1.50 1.58 1.65
0.02 0.02 0.03 0.04 0.05 0.05 0.05 0.06 0.05 0.04 0.04 0.04 0.04 0.05 0.04 0.04 0.05 0.09 0.19 0.35 0.48 0.49 0.48 0.63 0.69 0.63 0.62 0.65 0.66 0.60 0.54 0.54 0.69 0.87 1.00 1.05 1.13 1.25 1.49 1.53 1.52 1.55 1.47
0.02 0.02 0.02 0.02 0.03 0.03 0.02 0.02 0.02 0.02 0.02 0.03 0.05 0.07 0.05 0.02 0.03 0.04 0.10 0.25 0.39 0.43 0.44 0.57 0.82 0.86 0.75 0.71 0.75 0.85 0.77 0.62 0.61 0.66 0.81 0.92 0.97 1.14 1.48 1.71 1.65 1.44 1.39
0.03 0.02 0.02 0.02 0.03 0.03 0.03 0.02 0.02 0.02 0.03 0.03 0.04 0.06 0.05 0.05 0.04 0.05 0.09 0.19 0.29 0.34 0.38 0.50 0.67 0.83 0.76 0.71 0.71 0.79 0.83 0.73 0.67 0.68 0.65 0.73 0.85 1.02 1.29 1.56 1.67 1.60 1.44
0.03 0.04 0.04 0.03 0.04 0.04 0.04 0.04 0.04 0.04 0.04 0.04 0.03 0.03 0.03 0.03 0.05 0.06 0.08 0.13 0.18 0.18 0.25 0.41 0.56 0.55 0.52 0.59 0.70 0.81 0.90 0.75 0.65 0.74 0.73 0.75 0.78 0.96 1.28 1.50 1.62 1.60 1.47
0.04 0.05 0.05 0.04 0.04 0.07 0.08 0.06 0.05 0.05 0.05 0.05 0.05 0.05 0.05 0.05 0.05 0.07 0.09 0.10 0.13 0.13 0.19 0.33 0.41 0.37 0.37 0.46 0.57 0.70 0.83 0.69 0.71 0.86 0.90 0.88 0.95 1.00 1.12 1.27 1.47 1.58 1.48
0.05 0.06 0.06 0.07 0.07 0.09 0.09 0.07 0.06 0.06 0.06 0.07 0.09 0.10 0.10 0.10 0.08 0.07 0.09 0.11 0.13 0.14 0.20 0.26 0.30 0.27 0.28 0.33 0.38 0.49 0.60 0.68 0.77 0.91 0.98 0.94 0.91 0.97 1.03 1.07 1.18 1.29 1.28
0.06 0.06 0.07 0.07 0.07 0.08 0.08 0.07 0.06 0.07 0.08 0.09 0.11 0.12 0.14 0.14 0.11 0.08 0.08 0.10 0.14 0.16 0.19 0.23 0.24 0.26 0.29 0.31 0.32 0.39 0.54 0.73 0.91 0.92 0.84 0.82 0.85 0.90 0.91 1.03 1.10 1.15 1.17
0.09 0.08 0.07 0.07 0.07 0.07 0.07 0.06 0.05 0.06 0.06 0.07 0.08 0.10 0.11 0.13 0.09 0.08 0.11 0.12 0.14 0.16 0.19 0.20 0.20 0.26 0.29 0.29 0.35 0.46 0.63 0.82 0.90 0.82 0.76 0.67 0.69 0.83 0.89 0.91 0.95 0.97 1.03
0.11 0.09 0.08 0.07 0.06 0.07 0.06 0.05 0.04 0.04 0.05 0.06 0.07 0.09 0.07 0.07 0.08 0.09 0.11 0.12 0.13 0.13 0.17 0.24 0.28 0.35 0.40 0.47 0.57 0.66 0.68 0.72 0.77 0.70 0.74 0.68 0.64 0.71 0.75 0.76 0.78 0.75 0.76
0.10 0.09 0.07 0.06 0.05 0.05 0.06 0.05 0.05 0.04 0.04 0.03 0.04 0.05 0.07 0.05 0.07 0.08 0.10 0.11 0.11 0.13 0.21 0.29 0.37 0.45 0.51 0.59 0.65 0.66 0.66 0.67 0.70 0.67 0.66 0.65 0.60 0.60 0.62 0.63 0.67 0.70 0.73
0.07 0.07 0.07 0.07 0.05 0.05 0.06 0.07 0.07 0.06 0.05 0.04 0.04 0.04 0.05 0.06 0.06 0.07 0.09 0.10 0.11 0.14 0.19 0.30 0.49 0.54 0.53 0.59 0.63 0.62 0.53 0.48 0.49 0.51 0.51 0.49 0.47 0.48 0.51 0.53 0.55 0.61 0.64
0.07 0.09 0.08 0.07 0.06 0.06 0.05 0.05 0.06 0.07 0.08 0.07 0.06 0.06 0.06 0.07 0.07 0.08 0.09 0.11 0.11 0.12 0.14 0.21 0.34 0.39 0.42 0.48 0.48 0.46 0.39 0.33 0.33 0.34 0.34 0.36 0.37 0.39 0.40 0.44 0.44 0.44 0.50
0.05 0.07 0.08 0.08 0.08 0.08 0.07 0.07 0.07 0.06 0.06 0.08 0.09 0.08 0.08 0.08 0.08 0.08 0.09 0.10 0.11 0.12 0.15 0.19 0.24 0.27 0.28 0.28 0.29 0.30 0.30 0.31 0.30 0.30 0.32 0.33 0.35 0.36 0.35 0.34 0.38 0.41 0.41
0.04 0.05 0.06 0.07 0.08 0.09 0.10 0.10 0.10 0.10 0.10 0.09 0.09 0.10 0.11 0.11 0.11 0.11 0.11 0.11 0.12 0.13 0.14 0.15 0.17 0.17 0.19 0.20 0.21 0.25 0.27 0.31 0.32 0.32 0.31 0.33 0.35 0.36 0.34 0.33 0.33 0.34 0.36
0.04 0.05 0.05 0.05 0.06 0.08 0.10 0.11 0.13 0.14 0.14 0.13 0.12 0.13 0.14 0.14 0.15 0.15 0.15 0.15 0.15 0.16 0.15 0.15 0.15 0.16 0.18 0.20 0.24 0.25 0.27 0.30 0.33 0.33 0.34 0.35 0.36 0.37 0.37 0.37 0.36 0.36 0.37
0.04 0.04 0.05 0.05 0.06 0.08 0.08 0.08 0.09 0.10 0.12 0.13 0.14 0.15 0.17 0.17 0.18 0.18 0.18 0.17 0.17 0.17 0.18 0.18 0.18 0.19 0.21 0.23 0.26 0.29 0.30 0.32 0.34 0.35 0.37 0.38 0.40 0.40 0.39 0.40 0.41 0.42 0.42
0.05 0.05 0.05 0.05 0.06 0.07 0.08 0.08 0.09 0.10 0.12 0.13 0.14 0.16 0.18 0.18 0.18 0.18 0.18 0.17 0.17 0.18 0.19 0.20 0.20 0.20 0.22 0.25 0.28 0.31 0.33 0.34 0.39 0.43 0.46 0.45 0.45 0.44 0.43 0.43 0.43 0.45 0.46
0.04 0.04 0.04 0.05 0.06 0.07 0.08 0.08 0.09 0.11 0.12 0.13 0.14 0.15 0.16 0.17 0.18 0.19 0.19 0.18 0.19 0.19 0.20 0.22 0.23 0.23 0.23 0.26 0.29 0.33 0.36 0.38 0.42 0.48 0.54 0.56 0.52 0.48 0.48 0.45 0.44 0.44 0.48
0.04 0.04 0.04 0.05 0.06 0.08 0.08 0.09 0.10 0.11 0.12 0.14 0.15 0.16 0.17 0.16 0.18 0.20 0.22 0.21 0.20 0.20 0.21 0.24 0.26 0.27 0.26 0.28 0.31 0.35 0.41 0.42 0.43 0.46 0.53 0.58 0.57 0.55 0.53 0.51 0.49 0.47 0.49
0.03 0.03 0.05 0.06 0.07 0.08 0.09 0.10 0.12 0.13 0.15 0.16 0.17 0.19 0.20 0.20 0.20 0.21 0.22 0.22 0.21 0.20 0.21 0.23 0.26 0.27 0.28 0.29 0.31 0.37 0.43 0.41 0.42 0.46 0.50 0.56 0.60 0.59 0.59 0.60 0.57 0.56 0.55

GEFSGL_prec_meanprecacc_168.txt.gz
Total_Precipitation_Accumulation
0.94 1.03 1.06 0.85 0.61 0.49 0.48 0.46 0.45 0.47 0.53 0.61 0.56 0.53 0.58 0.63 0.61 0.69 0.80 0.91 1.01 1.08 1.10 1.15 1.21 1.27 1.36 1.41 1.53 1.60 1.63 1.59 1.38 1.22 1.11 1.11 1.12 1.10 1.11 1.04 1.08 1.10 0.99
0.81 0.79 0.65 0.47 0.38 0.35 0.32 0.26 0.22 0.22 0.23 0.29 0.32 0.33 0.40 0.52 0.55 0.61 0.65 0.67 0.74 0.80 0.85 0.92 0.97 1.02 1.13 1.20 1.29 1.38 1.51 1.55 1.46 1.30 1.19 1.12 1.03 1.04 1.20 1.25 1.24 1.15 1.11
0.45 0.43 0.39 0.32 0.30 0.26 0.22 0.19 0.17 0.17 0.16 0.20 0.23 0.26 0.30 0.40 0.51 0.57 0.59 0.56 0.55 0.53 0.56 0.62 0.71 0.80 0.93 1.01 1.07 1.17 1.33 1.37 1.44 1.33 1.28 1.22 1.08 1.03 1.18 1.20 1.28 1.44 1.32
0.26 0.23 0.23 0.23 0.23 0.23 0.23 0.24 0.18 0.15 0.16 0.15 0.14 0.16 0.24 0.35 0.44 0.52 0.55 0.53 0.49 0.49 0.51 0.52 0.56 0.59 0.67 0.77 0.90 1.10 1.29 1.41 1.45 1.39 1.36 1.33 1.27 1.18 1.24 1.32 1.39 1.49 1.52
0.17 0.17 0.19 0.19 0.19 0.18 0.20 0.20 0.17 0.14 0.12 0.08 0.06 0.08 0.16 0.23 0.27 0.40 0.46 0.46 0.48 0.46 0.47 0.52 0.54 0.51 0.52 0.56 0.57 0.76 0.99 1.23 1.34 1.40 1.41 1.43 1.38 1.34 1.26 1.36 1.43 1.57 1.69
0.06 0.07 0.09 0.11 0.13 0.15 0.15 0.15 0.13 0.11 0.09 0.07 0.06 0.06 0.08 0.09 0.15 0.22 0.31 0.41 0.47 0.50 0.51 0.56 0.55 0.50 0.55 0.53 0.51 0.54 0.65 0.81 0.98 1.11 1.21 1.26 1.31 1.40 1.51 1.52 1.50 1.58 1.66
0.03 0.03 0.04 0.05 0.05 0.06 0.05 0.06 0.05 0.05 0.04 0.04 0.04 0.05 0.05 0.05 0.05 0.09 0.19 0.35 0.48 0.49 0.49 0.63 0.70 0.64 0.62 0.66 0.67 0.61 0.55 0.55 0.70 0.88 1.00 1.05 1.14 1.25 1.49 1.54 1.52 1.55 1.48
0.03 0.03 0.03 0.04 0.04 0.03 0.03 0.03 0.02 0.02 0.02 0.03 0.05 0.08 0.05 0.03 0.03 0.05 0.11 0.25 0.40 0.44 0.45 0.58 0.83 0.86 0.75 0.71 0.75 0.86 0.78 0.62 0.61 0.66 0.81 0.92 0.98 1.15 1.49 1.71 1.65 1.44 1.39
0.04 0.04 0.04 0.05 0.06 0.05 0.04 0.04 0.03 0.03 0.03 0.04 0.04 0.06 0.06 0.05 0.05 0.05 0.09 0.20 0.30 0.34 0.39 0.51 0.67 0.83 0.76 0.72 0.72 0.79 0.83 0.73 0.67 0.68 0.65 0.73 0.85 1.02 1.29 1.56 1.67 1.60 1.44
0.05 0.06 0.06 0.05 0.05 0.06 0.05 0.06 0.05 0.05 0.05 0.05 0.04 0.04 0.04 0.03 0.05 0.06 0.08 0.13 0.18 0.18 0.25 0.41 0.56 0.56 0.52 0.59 0.70 0.81 0.90 0.75 0.65 0.74 0.73 0.75 0.78 0.96 1.28 1.50 1.62 1.60 1.47
0.07 0.08 0.08 0.07 0.07 0.10 0.10 0.08 0.06 0.06 0.07 0.07 0.06 0.06 0.06 0.05 0.06 0.07 0.10 0.11 0.13 0.14 0.19 0.33 0.41 0.38 0.37 0.46 0.58 0.70 0.84 0.70 0.72 0.86 0.91 0.88 0.96 1.00 1.12 1.27 1.47 1.58 1.48
0.08 0.09 0.10 0.11 0.10 0.12 0.12 0.10 0.08 0.08 0.07 0.08 0.11 0.11 0.11 0.11 0.08 0.08 0.10 0.12 0.14 0.15 0.21 0.27 0.30 0.27 0.29 0.33 0.38 0.49 0.61 0.68 0.77 0.91 0.98 0.94 0.91 0.97 1.03 1.07 1.18 1.29 1.28
0.09 0.10 0.11 0.12 0.12 0.12 0.11 0.10 0.08 0.08 0.09 0.10 0.12 0.13 0.14 0.14 0.11 0.09 0.09 0.11 0.14 0.16 0.19 0.23 0.24 0.26 0.30 0.31 0.32 0.40 0.54 0.73 0.91 0.92 0.84 0.82 0.85 0.90 0.91 1.03 1.10 1.15 1.18
0.11 0.12 0.12 0.12 0.11 0.11 0.10 0.09 0.08 0.08 0.09 0.09 0.09 0.10 0.11 0.14 0.10 0.09 0.11 0.13 0.14 0.17 0.19 0.20 0.20 0.26 0.29 0.29 0.35 0.47 0.63 0.82 0.90 0.82 0.76 0.67 0.69 0.83 0.89 0.91 0.95 0.97 1.03
0.13 0.12 0.11 0.09 0.09 0.09 0.07 0.07 0.07 0.07 0.07 0.09 0.10 0.10 0.09 0.08 0.09 0.10 0.12 0.13 0.13 0.13 0.18 0.24 0.29 0.35 0.40 0.47 0.57 0.66 0.68 0.72 0.77 0.70 0.74 0.68 0.64 0.71 0.75 0.76 0.78 0.75 0.76
0.12 0.11 0.09 0.08 0.07 0.07 0.07 0.07 0.07 0.08 0.08 0.07 0.08 0.08 0.09 0.07 0.08 0.09 0.10 0.12 0.12 0.13 0.21 0.29 0.37 0.45 0.52 0.60 0.66 0.67 0.67 0.68 0.71 0.67 0.66 0.65 0.60 0.60 0.62 0.63 0.67 0.70 0.73
0.09 0.09 0.09 0.09 0.08 0.08 0.07 0.09 0.09 0.09 0.08 0.07 0.07 0.08 0.08 0.08 0.07 0.08 0.09 0.11 0.12 0.14 0.19 0.30 0.49 0.55 0.54 0.59 0.64 0.62 0.54 0.48 0.49 0.52 0.51 0.49 0.47 0.48 0.51 0.53 0.55 0.61 0.64
0.10 0.12 0.10 0.09 0.09 0.08 0.08 0.08 0.08 0.09 0.10 0.10 0.08 0.07 0.08 0.08 0.08 0.08 0.09 0.11 0.12 0.12 0.14 0.21 0.35 0.40 0.43 0.49 0.49 0.46 0.39 0.33 0.33 0.34 0.34 0.36 0.37 0.39 0.40 0.44 0.44 0.44 0.50
0.07 0.09 0.10 0.10 0.10 0.10 0.10 0.09 0.09 0.08 0.08 0.10 0.11 0.10 0.09 0.09 0.10 0.10 0.10 0.11 0.11 0.13 0.15 0.20 0.24 0.28 0.29 0.29 0.30 0.30 0.30 0.31 0.31 0.30 0.32 0.34 0.35 0.36 0.35 0.34 0.38 0.41 0.41
0.05 0.07 0.08 0.09 0.09 0.11 0.12 0.12 0.12 0.12 0.11 0.12 0.11 0.12 0.12 0.12 0.12 0.12 0.11 0.12 0.13 0.13 0.14 0.16 0.17 0.18 0.19 0.20 0.22 0.25 0.27 0.31 0.32 0.32 0.32 0.33 0.35 0.36 0.34 0.33 0.33 0.34 0.36
0.06 0.06 0.06 0.07 0.08 0.09 0.12 0.13 0.14 0.15 0.16 0.15 0.14 0.15 0.15 0.15 0.15 0.16 0.16 0.16 0.16 0.16 0.16 0.15 0.15 0.16 0.18 0.20 0.24 0.26 0.27 0.30 0.33 0.33 0.34 0.35 0.37 0.37 0.37 0.37 0.36 0.36 0.37
0.06 0.06 0.06 0.07 0.08 0.09 0.10 0.10 0.10 0.11 0.13 0.15 0.15 0.17 0.18 0.18 0.18 0.19 0.19 0.18 0.17 0.18 0.18 0.18 0.18 0.19 0.22 0.24 0.27 0.29 0.30 0.32 0.34 0.35 0.37 0.38 0.40 0.41 0.40 0.40 0.41 0.43 0.43
0.07 0.07 0.07 0.07 0.07 0.08 0.09 0.09 0.10 0.11 0.13 0.14 0.15 0.17 0.19 0.19 0.20 0.19 0.19 0.18 0.18 0.18 0.20 0.20 0.20 0.20 0.22 0.25 0.28 0.32 0.33 0.34 0.39 0.44 0.46 0.46 0.45 0.45 0.44 0.43 0.43 0.46 0.47
0.06 0.06 0.06 0.06 0.07 0.08 0.08 0.09 0.10 0.12 0.13 0.14 0.15 0.16 0.18 0.19 0.20 0.21 0.21 0.20 0.19 0.19 0.20 0.22 0.23 0.23 0.23 0.26 0.29 0.33 0.36 0.38 0.42 0.48 0.54 0.56 0.52 0.48 0.48 0.46 0.45 0.46 0.50
0.06 0.07 0.08 0.09 0.09 0.09 0.09 0.11 0.11 0.12 0.14 0.15 0.16 0.18 0.18 0.18 0.19 0.21 0.23 0.22 0.20 0.20 0.21 0.24 0.26 0.27 0.27 0.28 0.31 0.35 0.41 0.43 0.43 0.46 0.53 0.59 0.58 0.56 0.54 0.53 0.50 0.49 0.51
0.05 0.06 0.07 0.09 0.09 0.10 0.11 0.12 0.13 0.15 0.18 0.18 0.18 0.20 0.21 0.21 0.21 0.22 0.23 0.22 0.21 0.20 0.21 0.24 0.26 0.27 0.28 0.29 0.32 0.38 0.43 0.42 0.43 0.46 0.51 0.57 0.61 0.61 0.61 0.61 0.59 0.59 0.58

GEFSGL_prec_meanprecacc_174.txt.gz
Total_Precipitation_Accumulation
0.94 1.03 1.06 0.85 0.61 0.49 0.48 0.46 0.45 0.47 0.53 0.61 0.57 0.53 0.59 0.64 0.62 0.70 0.81 0.93 1.03 1.09 1.11 1.16 1.22 1.27 1.37 1.43 1.54 1.61 1.64 1.61 1.41 1.25 1.13 1.13 1.15 1.13 1.12 1.05 1.10 1.12 1.01
0.81 0.79 0.65 0.47 0.38 0.35 0.32 0.26 0.22 0.22 0.23 0.29 0.32 0.33 0.41 0.53 0.55 0.61 0.65 0.67 0.75 0.81 0.86 0.93 0.98 1.02 1.14 1.21 1.30 1.39 1.52 1.56 1.47 1.32 1.21 1.14 1.04 1.05 1.21 1.26 1.25 1.16 1.13
0.45 0.43 0.39 0.32 0.30 0.26 0.22 0.19 0.17 0.17 0.16 0.20 0.23 0.26 0.30 0.40 0.51 0.57 0.59 0.56 0.56 0.54 0.56 0.63 0.72 0.80 0.95 1.03 1.08 1.18 1.35 1.38 1.46 1.36 1.31 1.24 1.10 1.04 1.19 1.21 1.28 1.45 1.33
0.26 0.23 0.23 0.23 0.23 0.23 0.23 0.24 0.18 0.15 0.16 0.15 0.14 0.16 0.24 0.35 0.44 0.52 0.55 0.53 0.50 0.49 0.51 0.52 0.57 0.60 0.68 0.79 0.91 1.12 1.30 1.43 1.46 1.40 1.37 1.35 1.28 1.19 1.25 1.34 1.41 1.50 1.53
0.18 0.17 0.19 0.19 0.19 0.18 0.20 0.20 0.17 0.14 0.12 0.08 0.06 0.08 0.16 0.23 0.27 0.40 0.46 0.46 0.48 0.46 0.47 0.52 0.55 0.52 0.53 0.57 0.57 0.77 1.00 1.25 1.35 1.41 1.42 1.44 1.39 1.36 1.30 1.41 1.48 1.59 1.69
0.07 0.07 0.09 0.11 0.13 0.15 0.15 0.15 0.13 0.11 0.09 0.07 0.06 0.06 0.08 0.09 0.15 0.22 0.31 0.41 0.48 0.50 0.51 0.56 0.55 0.50 0.55 0.53 0.51 0.54 0.66 0.83 1.01 1.13 1.23 1.28 1.33 1.43 1.54 1.54 1.51 1.59 1.66
0.04 0.03 0.04 0.05 0.05 0.06 0.05 0.06 0.05 0.05 0.04 0.04 0.04 0.05 0.05 0.05 0.06 0.09 0.20 0.35 0.49 0.49 0.49 0.64 0.71 0.64 0.63 0.66 0.67 0.61 0.56 0.56 0.71 0.90 1.01 1.06 1.14 1.26 1.51 1.55 1.53 1.56 1.48
0.03 0.03 0.03 0.04 0.04 0.04 0.03 0.03 0.02 0.02 0.03 0.04 0.05 0.08 0.05 0.03 0.04 0.05 0.11 0.25 0.40 0.44 0.46 0.58 0.84 0.87 0.75 0.71 0.75 0.86 0.78 0.63 0.61 0.67 0.81 0.93 0.98 1.15 1.49 1.72 1.66 1.44 1.39
0.04 0.04 0.04 0.05 0.06 0.06 0.05 0.05 0.03 0.03 0.04 0.04 0.05 0.07 0.06 0.05 0.05 0.06 0.10 0.20 0.30 0.34 0.39 0.51 0.68 0.83 0.76 0.72 0.72 0.79 0.83 0.73 0.67 0.69 0.66 0.73 0.85 1.02 1.29 1.56 1.67 1.60 1.44
0.06 0.07 0.07 0.06 0.06 0.07 0.06 0.07 0.06 0.06 0.05 0.05 0.05 0.04 0.04 0.04 0.05 0.07 0.08 0.13 0.18 0.18 0.25 0.41 0.56 0.56 0.53 0.60 0.71 0.81 0.90 0.75 0.65 0.75 0.74 0.76 0.78 0.96 1.29 1.50 1.62 1.60 1.48
0.08 0.09 0.09 0.08 0.08 0.11 0.12 0.09 0.07 0.07 0.07 0.07 0.07 0.06 0.06 0.05 0.06 0.07 0.10 0.11 0.13 0.14 0.19 0.33 0.41 0.38 0.38 0.46 0.58 0.70 0.84 0.70 0.72 0.86 0.91 0.88 0.96 1.00 1.12 1.27 1.47 1.58 1.48
0.09 0.10 0.11 0.12 0.12 0.14 0.14 0.11 0.09 0.08 0.08 0.09 0.11 0.11 0.11 0.11 0.09 0.08 0.10 0.12 0.14 0.15 0.21 0.27 0.30 0.27 0.29 0.34 0.38 0.49 0.61 0.68 0.77 0.91 0.98 0.95 0.91 0.97 1.03 1.07 1.18 1.29 1.28
0.10 0.11 0.12 0.14 0.14 0.14 0.13 0.12 0.10 0.09 0.10 0.10 0.12 0.13 0.15 0.15 0.12 0.10 0.10 0.11 0.15 0.17 0.19 0.24 0.25 0.27 0.30 0.31 0.32 0.40 0.54 0.74 0.91 0.92 0.85 0.82 0.85 0.90 0.91 1.03 1.10 1.15 1.18
0.12 0.13 0.13 0.14 0.13 0.13 0.13 0.11 0.10 0.10 0.10 0.10 0.11 0.12 0.12 0.14 0.10 0.09 0.12 0.13 0.14 0.17 0.19 0.20 0.21 0.27 0.30 0.30 0.35 0.47 0.63 0.82 0.90 0.82 0.76 0.67 0.69 0.83 0.89 0.91 0.95 0.97 1.03
0.14 0.13 0.11 0.11 0.11 0.11 0.10 0.09 0.09 0.09 0.09 0.10 0.11 0.12 0.10 0.09 0.10 0.11 0.12 0.13 0.13 0.13 0.18 0.25 0.29 0.35 0.40 0.47 0.58 0.66 0.69 0.72 0.77 0.70 0.74 0.68 0.64 0.71 0.76 0.77 0.78 0.75 0.76
0.13 0.12 0.10 0.09 0.08 0.08 0.09 0.09 0.08 0.09 0.09 0.08 0.09 0.10 0.10 0.08 0.10 0.10 0.11 0.12 0.12 0.14 0.22 0.30 0.38 0.46 0.52 0.61 0.67 0.68 0.67 0.69 0.71 0.68 0.67 0.66 0.60 0.60 0.62 0.64 0.67 0.70 0.73
0.09 0.10 0.10 0.10 0.09 0.09 0.10 0.10 0.10 0.09 0.09 0.08 0.09 0.09 0.10 0.10 0.09 0.10 0.11 0.12 0.13 0.15 0.20 0.30 0.50 0.55 0.54 0.60 0.64 0.63 0.54 0.48 0.50 0.52 0.51 0.49 0.47 0.48 0.52 0.53 0.55 0.61 0.64
0.11 0.13 0.12 0.11 0.11 0.10 0.10 0.10 0.10 0.11 0.11 0.11 0.09 0.08 0.08 0.09 0.09 0.10 0.11 0.12 0.13 0.13 0.15 0.22 0.35 0.40 0.43 0.49 0.49 0.47 0.40 0.34 0.34 0.34 0.34 0.36 0.37 0.39 0.41 0.44 0.44 0.45 0.50
0.09 0.11 0.12 0.12 0.11 0.11 0.11 0.11 0.12 0.11 0.11 0.12 0.12 0.11 0.11 0.11 0.11 0.12 0.12 0.12 0.12 0.14 0.16 0.21 0.25 0.29 0.30 0.29 0.30 0.31 0.30 0.31 0.31 0.31 0.32 0.34 0.35 0.36 0.35 0.34 0.38 0.41 0.42
0.07 0.08 0.09 0.10 0.10 0.12 0.13 0.14 0.15 0.15 0.16 0.16 0.14 0.14 0.14 0.14 0.14 0.14 0.14 0.14 0.14 0.15 0.15 0.17 0.18 0.18 0.19 0.20 0.22 0.25 0.28 0.31 0.32 0.32 0.32 0.33 0.35 0.36 0.35 0.33 0.33 0.34 0.36
0.07 0.07 0.07 0.08 0.09 0.10 0.12 0.14 0.16 0.18 0.19 0.19 0.19 0.18 0.17 0.16 0.16 0.17 0.17 0.17 0.17 0.17 0.16 0.16 0.16 0.17 0.18 0.21 0.24 0.26 0.27 0.31 0.33 0.33 0.34 0.35 0.37 0.37 0.37 0.37 0.36 0.36 0.37
0.09 0.08 0.07 0.07 0.09 0.10 0.11 0.11 0.12 0.13 0.15 0.17 0.18 0.19 0.20 0.19 0.19 0.20 0.19 0.18 0.18 0.18 0.19 0.18 0.18 0.19 0.22 0.24 0.27 0.29 0.30 0.32 0.34 0.36 0.37 0.38 0.40 0.41 0.40 0.41 0.42 0.43 0.43
0.10 0.10 0.09 0.08 0.08 0.10 0.10 0.11 0.13 0.14 0.16 0.17 0.17 0.18 0.19 0.20 0.20 0.20 0.19 0.19 0.19 0.20 0.21 0.21 0.21 0.21 0.22 0.26 0.29 0.32 0.33 0.35 0.39 0.44 0.47 0.46 0.45 0.45 0.44 0.44 0.44 0.47 0.47
0.08 0.08 0.08 0.08 0.09 0.10 0.10 0.10 0.13 0.15 0.16 0.17 0.18 0.18 0.19 0.20 0.20 0.21 0.22 0.21 0.21 0.20 0.21 0.24 0.24 0.24 0.24 0.27 0.30 0.34 0.36 0.38 0.42 0.48 0.55 0.56 0.53 0.49 0.49 0.47 0.46 0.47 0.51
0.07 0.09 0.10 0.12 0.13 0.12 0.12 0.12 0.13 0.14 0.16 0.17 0.18 0.19 0.19 0.19 0.20 0.23 0.24 0.23 0.22 0.21 0.22 0.25 0.27 0.28 0.27 0.28 0.31 0.35 0.41 0.43 0.43 0.47 0.53 0.60 0.59 0.57 0.56 0.54 0.52 0.51 0.54
0.06 0.07 0.09 0.12 0.13 0.13 0.14 0.15 0.16 0.18 0.20 0.20 0.20 0.21 0.22 0.22 0.22 0.22 0.24 0.23 0.22 0.21 0.22 0.24 0.26 0.28 0.28 0.29 0.32 0.38 0.43 0.42 0.43 0.47 0.52 0.58 0.62 0.62 0.62 0.64 0.62 0.61 0.60